| time (UTC) | temp F | wind direction | speed knots | gust knots | rain 1hr in | rain 24hr in | rain mn in | humidity % | barometer mb |
| 20260507154005 | 56 | 11 | 3.5 | 6.1 | 0.00 | 0.00 | 0.00 | 31 | 1013.0 |
| 20260507153804 | 56 | 35 | 2.6 | 8.7 | 0.00 | 0.00 | 0.00 | 32 | 1013.0 |
| 20260507153604 | 57 | 61 | 2.6 | 8.7 | 0.00 | 0.00 | 0.00 | 33 | 1013.0 |
| 20260507153404 | 57 | 85 | 2.6 | 8.7 | 0.00 | 0.00 | 0.00 | 31 | 1013.0 |
| 20260507153204 | 57 | 69 | 2.6 | 8.7 | 0.00 | 0.00 | 0.00 | 32 | 1012.9 |
| 20260507153004 | 58 | 84 | 5.2 | 8.7 | 0.00 | 0.00 | 0.00 | 31 | 1013.0 |
| 20260507152804 | 58 | 96 | 5.2 | 7.8 | 0.00 | 0.00 | 0.00 | 33 | 1013.0 |
| 20260507152603 | 57 | 67 | 2.6 | 6.1 | 0.00 | 0.00 | 0.00 | 36 | 1013.0 |
| 20260507152404 | 57 | 96 | 3.5 | 6.1 | 0.00 | 0.00 | 0.00 | 36 | 1012.9 |
| 20260507152204 | 57 | 117 | 2.6 | 5.2 | 0.00 | 0.00 | 0.00 | 34 | 1012.9 |
| 20260507152004 | 57 | 305 | 1.7 | 5.2 | 0.00 | 0.00 | 0.00 | 34 | 1012.9 |
| 20260507151803 | 56 | 251 | 1.7 | 6.1 | 0.00 | 0.00 | 0.00 | 34 | 1012.9 |
| 20260507151604 | 56 | 184 | 0.9 | 6.1 | 0.00 | 0.00 | 0.00 | 33 | 1012.9 |
| 20260507151403 | 56 | 106 | 1.7 | 6.1 | 0.00 | 0.00 | 0.00 | 33 | 1012.9 |
| 20260507151204 | 56 | 115 | 2.6 | 6.1 | 0.00 | 0.00 | 0.00 | 34 | 1012.9 |
| 20260507151003 | 56 | 115 | 4.3 | 6.1 | 0.00 | 0.00 | 0.00 | 35 | 1012.8 |
| 20260507150804 | 56 | 184 | 1.7 | 6.1 | 0.00 | 0.00 | 0.00 | 33 | 1012.8 |
| 20260507150604 | 56 | 158 | 2.6 | 6.1 | 0.00 | 0.00 | 0.00 | 34 | 1012.8 |
| 20260507150404 | 56 | 101 | 3.5 | 7.8 | 0.00 | 0.00 | 0.00 | 33 | 1012.8 |
| 20260507150204 | 56 | 93 | 2.6 | 7.8 | 0.00 | 0.00 | 0.00 | 34 | 1012.8 |
| 20260507150004 | 56 | 54 | 2.6 | 7.8 | 0.00 | 0.00 | 0.00 | 34 | 1012.8 |
| 20260507145804 | 56 | 78 | 2.6 | 7.8 | 0.00 | 0.00 | 0.00 | 34 | 1012.8 |
| 20260507145604 | 56 | 97 | 4.3 | 7.8 | 0.00 | 0.00 | 0.00 | 34 | 1012.9 |
| 20260507145425 | 56 | 103 | 2.6 | 6.1 | 0.00 | 0.00 | 0.00 | 35 | 1012.8 |
| 20260507145224 | 56 | 136 | 2.6 | 5.2 | 0.00 | 0.00 | 0.00 | 34 | 1012.8 |
| 20260507145025 | 56 | 166 | 0.9 | 5.2 | 0.00 | 0.00 | 0.00 | 34 | 1013.0 |
| 20260507144804 | 56 | 140 | 1.7 | 5.2 | 0.00 | 0.00 | 0.00 | 33 | 1013.0 |
| 20260507144604 | 56 | 101 | 1.7 | 5.2 | 0.00 | 0.00 | 0.00 | 34 | 1013.1 |
| 20260507144404 | 55 | 80 | 3.5 | 5.2 | 0.00 | 0.00 | 0.00 | 33 | 1013.1 |
| 20260507144204 | 55 | 132 | 1.7 | 5.2 | 0.00 | 0.00 | 0.00 | 34 | 1013.1 |
| 20260507144004 | 55 | 102 | 3.5 | 5.2 | 0.00 | 0.00 | 0.00 | 33 | 1013.2 |
| 20260507143804 | 55 | 131 | 1.7 | 5.2 | 0.00 | 0.00 | 0.00 | 35 | 1013.1 |
| 20260507143604 | 55 | 114 | 0.9 | 5.2 | 0.00 | 0.00 | 0.00 | 35 | 1013.1 |
| 20260507143404 | 55 | 104 | 2.6 | 5.2 | 0.00 | 0.00 | 0.00 | 36 | 1013.1 |
| 20260507143204 | 55 | 125 | 1.7 | 5.2 | 0.00 | 0.00 | 0.00 | 37 | 1013.0 |
| 20260507143004 | 55 | 119 | 2.6 | 5.2 | 0.00 | 0.00 | 0.00 | 37 | 1013.1 |
| 20260507142804 | 55 | 112 | 1.7 | 3.5 | 0.00 | 0.00 | 0.00 | 38 | 1013.0 |
| 20260507142604 | 55 | 102 | 1.7 | 3.5 | 0.00 | 0.00 | 0.00 | 38 | 1013.0 |
| 20260507142404 | 55 | 122 | 1.7 | 3.5 | 0.00 | 0.00 | 0.00 | 39 | 1013.1 |
| 20260507142203 | 54 | 64 | 0.9 | 3.5 | 0.00 | 0.00 | 0.00 | 38 | 1013.1 |
| 20260507142004 | 54 | 60 | 1.7 | 3.5 | 0.00 | 0.00 | 0.00 | 37 | 1013.0 |
| 20260507141804 | 54 | 69 | 1.7 | 3.5 | 0.00 | 0.00 | 0.00 | 36 | 1013.0 |
| 20260507141603 | 54 | 92 | 1.7 | 3.5 | 0.00 | 0.00 | 0.00 | 37 | 1013.0 |
| 20260507141404 | 54 | 69 | 0.9 | 3.5 | 0.00 | 0.00 | 0.00 | 37 | 1013.0 |
| 20260507141203 | 54 | 83 | 0.9 | 3.5 | 0.00 | 0.00 | 0.00 | 38 | 1013.0 |
| 20260507141006 | 54 | 84 | 1.7 | 3.5 | 0.00 | 0.00 | 0.00 | 37 | 1013.0 |
| 20260507140804 | 53 | 63 | 0.9 | 3.5 | 0.00 | 0.00 | 0.00 | 37 | 1013.1 |
| 20260507140603 | 53 | 59 | 1.7 | 3.5 | 0.00 | 0.00 | 0.00 | 37 | 1013.0 |
| 20260507140404 | 53 | 87 | 0.9 | 2.6 | 0.00 | 0.00 | 0.00 | 39 | 1013.0 |
| 20260507140203 | 53 | 67 | 0.9 | 2.6 | 0.00 | 0.00 | 0.00 | 39 | 1013.0 |
| 20260507140004 | 52 | 75 | 1.7 | 2.6 | 0.00 | 0.00 | 0.00 | 40 | 1012.9 |
| 20260507135804 | 52 | 102 | 1.7 | 2.6 | 0.00 | 0.00 | 0.00 | 40 | 1012.8 |
| 20260507135604 | 52 | 101 | 1.7 | 2.6 | 0.00 | 0.00 | 0.00 | 40 | 1012.8 |
| 20260507135403 | 52 | 90 | 1.7 | 2.6 | 0.00 | 0.00 | 0.00 | 41 | 1012.8 |
| 20260507135203 | 52 | 83 | 1.7 | 2.6 | 0.00 | 0.00 | 0.00 | 41 | 1012.7 |
| 20260507135003 | 51 | 92 | 1.7 | 2.6 | 0.00 | 0.00 | 0.00 | 41 | 1012.7 |
| 20260507134803 | 51 | 0 | 0.0 | 0.0 | 0.00 | 0.00 | 0.00 | 43 | 1012.8 |
| 20260507134604 | 50 | 0 | 0.0 | 0.0 | 0.00 | 0.00 | 0.00 | 43 | 1012.8 |
| 20260507134404 | 50 | 0 | 0.0 | 0.0 | 0.00 | 0.00 | 0.00 | 43 | 1012.8 |
| 20260507134204 | 50 | 0 | 0.0 | 0.0 | 0.00 | 0.00 | 0.00 | 44 | 1012.8 |
| 20260507134004 | 49 | 0 | 0.0 | 0.0 | 0.00 | 0.00 | 0.00 | 44 | 1012.7 |
| 20260507133804 | 49 | 0 | 0.0 | 0.0 | 0.00 | 0.00 | 0.00 | 44 | 1012.8 |
| 20260507133607 | 48 | 0 | 0.0 | 0.0 | 0.00 | 0.00 | 0.00 | 43 | 1012.9 |
| 20260507133404 | 48 | 0 | 0.0 | 0.0 | 0.00 | 0.00 | 0.00 | 43 | 1012.8 |
| 20260507133204 | 48 | 0 | 0.0 | 0.0 | 0.00 | 0.00 | 0.00 | 43 | 1012.7 |
| 20260507133004 | 47 | 0 | 0.0 | 0.0 | 0.00 | 0.00 | 0.00 | 44 | 1012.7 |
| 20260507132804 | 47 | 0 | 0.0 | 0.0 | 0.00 | 0.00 | 0.00 | 42 | 1012.7 |
| 20260507132604 | 47 | 0 | 0.0 | 0.0 | 0.00 | 0.00 | 0.00 | 44 | 1012.7 |
| 20260507132404 | 46 | 0 | 0.0 | 0.0 | 0.00 | 0.00 | 0.00 | 44 | 1012.7 |
| 20260507132203 | 46 | 0 | 0.0 | 0.0 | 0.00 | 0.00 | 0.00 | 45 | 1012.7 |
| 20260507132004 | 46 | 0 | 0.0 | 0.0 | 0.00 | 0.00 | 0.00 | 47 | 1012.7 |
| 20260507131825 | 46 | 0 | 0.0 | 0.0 | 0.00 | 0.00 | 0.00 | 47 | 1012.7 |
| 20260507131625 | 45 | 0 | 0.0 | 0.0 | 0.00 | 0.00 | 0.00 | 48 | 1012.7 |
| 20260507131425 | 45 | 0 | 0.0 | 0.0 | 0.00 | 0.00 | 0.00 | 48 | 1012.7 |
| 20260507131204 | 44 | 0 | 0.0 | 0.0 | 0.00 | 0.00 | 0.00 | 48 | 1012.7 |
| 20260507131003 | 44 | 0 | 0.0 | 0.0 | 0.00 | 0.00 | 0.00 | 50 | 1012.6 |
| 20260507130805 | 43 | 0 | 0.0 | 0.0 | 0.00 | 0.00 | 0.00 | 51 | 1012.7 |
| 20260507130604 | 43 | 0 | 0.0 | 0.0 | 0.00 | 0.00 | 0.00 | 51 | 1012.5 |
| 20260507130404 | 43 | 0 | 0.0 | 0.0 | 0.00 | 0.00 | 0.00 | 51 | 1012.5 |
| 20260507130204 | 42 | 0 | 0.0 | 0.0 | 0.00 | 0.00 | 0.00 | 51 | 1012.5 |
| 20260507130004 | 42 | 0 | 0.0 | 0.0 | 0.00 | 0.00 | 0.00 | 51 | 1012.5 |
| 20260507125803 | 42 | 0 | 0.0 | 0.0 | 0.00 | 0.00 | 0.00 | 52 | 1012.4 |
| 20260507125604 | 41 | 0 | 0.0 | 0.0 | 0.00 | 0.00 | 0.00 | 52 | 1012.4 |
| 20260507125404 | 41 | 0 | 0.0 | 0.0 | 0.00 | 0.00 | 0.00 | 53 | 1012.4 |
| 20260507125204 | 40 | 0 | 0.0 | 0.0 | 0.00 | 0.00 | 0.00 | 51 | 1012.4 |
| 20260507125004 | 40 | 0 | 0.0 | 0.0 | 0.00 | 0.00 | 0.00 | 53 | 1012.4 |
| 20260507124803 | 40 | 0 | 0.0 | 0.0 | 0.00 | 0.00 | 0.00 | 53 | 1012.2 |
| 20260507124604 | 39 | 0 | 0.0 | 0.0 | 0.00 | 0.00 | 0.00 | 54 | 1012.2 |
| 20260507124403 | 39 | 0 | 0.0 | 0.0 | 0.00 | 0.00 | 0.00 | 56 | 1012.2 |
| 20260507124204 | 38 | 0 | 0.0 | 0.0 | 0.00 | 0.00 | 0.00 | 55 | 1012.2 |
| 20260507124004 | 38 | 0 | 0.0 | 0.0 | 0.00 | 0.00 | 0.00 | 55 | 1012.2 |
| 20260507123804 | 37 | 0 | 0.0 | 0.0 | 0.00 | 0.00 | 0.00 | 57 | 1012.3 |
| 20260507123604 | 37 | 0 | 0.0 | 0.0 | 0.00 | 0.00 | 0.00 | 57 | 1012.2 |
| 20260507123404 | 36 | 0 | 0.0 | 0.0 | 0.00 | 0.00 | 0.00 | 57 | 1012.3 |
| 20260507123204 | 36 | 0 | 0.0 | 0.0 | 0.00 | 0.00 | 0.00 | 58 | 1012.2 |
| 20260507123004 | 36 | 0 | 0.0 | 0.0 | 0.00 | 0.00 | 0.00 | 58 | 1012.2 |
| 20260507122804 | 36 | 0 | 0.0 | 0.0 | 0.00 | 0.00 | 0.00 | 59 | 1012.2 |
| 20260507122604 | 35 | 0 | 0.0 | 0.0 | 0.00 | 0.00 | 0.00 | 58 | 1012.2 |
| 20260507122404 | 35 | 0 | 0.0 | 0.0 | 0.00 | 0.00 | 0.00 | 58 | 1012.2 |
| 20260507122203 | 34 | 0 | 0.0 | 0.0 | 0.00 | 0.00 | 0.00 | 58 | 1012.2 |
| 20260507122005 | 34 | 0 | 0.0 | 0.0 | 0.00 | 0.00 | 0.00 | 58 | 1012.2 |
| 20260507121804 | 34 | 0 | 0.0 | 0.0 | 0.00 | 0.00 | 0.00 | 60 | 1012.1 |
| 20260507121603 | 34 | 0 | 0.0 | 0.0 | 0.00 | 0.00 | 0.00 | 59 | 1012.0 |
| 20260507121404 | 34 | 0 | 0.0 | 0.0 | 0.00 | 0.00 | 0.00 | 59 | 1012.0 |
| 20260507121204 | 34 | 0 | 0.0 | 0.0 | 0.00 | 0.00 | 0.00 | 59 | 1012.0 |
| 20260507121004 | 34 | 0 | 0.0 | 0.0 | 0.00 | 0.00 | 0.00 | 59 | 1012.0 |
| 20260507120804 | 33 | 0 | 0.0 | 0.0 | 0.00 | 0.00 | 0.00 | 58 | 1012.0 |
| 20260507120604 | 33 | 0 | 0.0 | 0.0 | 0.00 | 0.00 | 0.00 | 58 | 1012.0 |
| 20260507120403 | 33 | 0 | 0.0 | 0.0 | 0.00 | 0.00 | 0.00 | 58 | 1012.0 |
| 20260507120204 | 33 | 0 | 0.0 | 0.0 | 0.00 | 0.00 | 0.00 | 58 | 1012.0 |
| 20260507120005 | 33 | 0 | 0.0 | 0.0 | 0.00 | 0.00 | 0.00 | 58 | 1012.0 |
| 20260507115803 | 33 | 0 | 0.0 | 0.0 | 0.00 | 0.00 | 0.00 | 58 | 1011.9 |
| 20260507115604 | 33 | 0 | 0.0 | 0.0 | 0.00 | 0.00 | 0.00 | 58 | 1011.9 |
| 20260507115404 | 33 | 0 | 0.0 | 0.0 | 0.00 | 0.00 | 0.00 | 58 | 1011.9 |
| 20260507115204 | 33 | 0 | 0.0 | 0.0 | 0.00 | 0.00 | 0.00 | 58 | 1011.9 |
| 20260507115007 | 33 | 0 | 0.0 | 0.0 | 0.00 | 0.00 | 0.00 | 57 | 1011.9 |
| 20260507114804 | 33 | 0 | 0.0 | 0.0 | 0.00 | 0.00 | 0.00 | 57 | 1011.8 |
| 20260507114604 | 33 | 0 | 0.0 | 0.0 | 0.00 | 0.00 | 0.00 | 57 | 1011.9 |
| 20260507114404 | 33 | 0 | 0.0 | 0.0 | 0.00 | 0.00 | 0.00 | 57 | 1011.9 |
| 20260507114204 | 33 | 0 | 0.0 | 0.0 | 0.00 | 0.00 | 0.00 | 57 | 1011.8 |
| 20260507114004 | 33 | 0 | 0.0 | 0.0 | 0.00 | 0.00 | 0.00 | 57 | 1011.8 |
| 20260507113804 | 33 | 0 | 0.0 | 0.0 | 0.00 | 0.00 | 0.00 | 57 | 1011.8 |
| 20260507113604 | 33 | 0 | 0.0 | 0.0 | 0.00 | 0.00 | 0.00 | 58 | 1011.8 |
| 20260507113404 | 33 | 0 | 0.0 | 0.0 | 0.00 | 0.00 | 0.00 | 58 | 1011.7 |
| 20260507113204 | 33 | 0 | 0.0 | 0.0 | 0.00 | 0.00 | 0.00 | 58 | 1011.7 |
| 20260507113007 | 33 | 0 | 0.0 | 0.0 | 0.00 | 0.00 | 0.00 | 58 | 1011.7 |
| 20260507112804 | 33 | 0 | 0.0 | 0.0 | 0.00 | 0.00 | 0.00 | 58 | 1011.6 |
| 20260507112603 | 33 | 0 | 0.0 | 0.0 | 0.00 | 0.00 | 0.00 | 58 | 1011.6 |
| 20260507112404 | 33 | 0 | 0.0 | 0.0 | 0.00 | 0.00 | 0.00 | 58 | 1011.7 |
| 20260507112204 | 32 | 0 | 0.0 | 0.0 | 0.00 | 0.00 | 0.00 | 59 | 1011.6 |
| 20260507112004 | 32 | 0 | 0.0 | 0.0 | 0.00 | 0.00 | 0.00 | 58 | 1011.6 |
| 20260507111804 | 32 | 0 | 0.0 | 0.0 | 0.00 | 0.00 | 0.00 | 59 | 1011.6 |
| 20260507111603 | 32 | 0 | 0.0 | 0.0 | 0.00 | 0.00 | 0.00 | 59 | 1011.6 |
| 20260507111404 | 32 | 0 | 0.0 | 0.0 | 0.00 | 0.00 | 0.00 | 59 | 1011.6 |
| 20260507111204 | 32 | 0 | 0.0 | 0.0 | 0.00 | 0.00 | 0.00 | 59 | 1011.6 |
| 20260507111004 | 32 | 0 | 0.0 | 0.0 | 0.00 | 0.00 | 0.00 | 59 | 1011.6 |
| 20260507110805 | 32 | 0 | 0.0 | 0.0 | 0.00 | 0.00 | 0.00 | 58 | 1011.5 |
| 20260507110604 | 32 | 0 | 0.0 | 0.0 | 0.00 | 0.00 | 0.00 | 58 | 1011.5 |
| 20260507110403 | 32 | 0 | 0.0 | 0.0 | 0.00 | 0.00 | 0.00 | 58 | 1011.5 |
| 20260507110204 | 32 | 0 | 0.0 | 0.0 | 0.00 | 0.00 | 0.00 | 58 | 1011.5 |
| 20260507110007 | 32 | 0 | 0.0 | 0.0 | 0.00 | 0.00 | 0.00 | 58 | 1011.4 |
| 20260507105803 | 32 | 0 | 0.0 | 0.0 | 0.00 | 0.00 | 0.00 | 57 | 1011.4 |
| 20260507105604 | 33 | 0 | 0.0 | 0.0 | 0.00 | 0.00 | 0.00 | 57 | 1011.4 |
| 20260507105404 | 33 | 0 | 0.0 | 0.0 | 0.00 | 0.00 | 0.00 | 57 | 1011.4 |
| 20260507105204 | 33 | 0 | 0.0 | 0.0 | 0.00 | 0.00 | 0.00 | 57 | 1011.4 |
| 20260507105004 | 33 | 0 | 0.0 | 0.0 | 0.00 | 0.00 | 0.00 | 57 | 1011.3 |
| 20260507104804 | 33 | 0 | 0.0 | 0.0 | 0.00 | 0.00 | 0.00 | 57 | 1011.3 |
| 20260507104604 | 33 | 0 | 0.0 | 0.0 | 0.00 | 0.00 | 0.00 | 56 | 1011.3 |
| 20260507104404 | 33 | 0 | 0.0 | 0.0 | 0.00 | 0.00 | 0.00 | 56 | 1011.3 |
| 20260507104204 | 33 | 0 | 0.0 | 0.0 | 0.00 | 0.00 | 0.00 | 56 | 1011.2 |
| 20260507104004 | 33 | 0 | 0.0 | 0.0 | 0.00 | 0.00 | 0.00 | 56 | 1011.3 |
| 20260507103804 | 33 | 0 | 0.0 | 0.0 | 0.00 | 0.00 | 0.00 | 57 | 1011.2 |
| 20260507103604 | 33 | 0 | 0.0 | 0.0 | 0.00 | 0.00 | 0.00 | 56 | 1011.2 |
| 20260507103403 | 33 | 0 | 0.0 | 0.0 | 0.00 | 0.00 | 0.00 | 56 | 1011.2 |
| 20260507103204 | 33 | 0 | 0.0 | 0.0 | 0.00 | 0.00 | 0.00 | 56 | 1011.1 |
| 20260507103004 | 33 | 0 | 0.0 | 0.0 | 0.00 | 0.00 | 0.00 | 56 | 1011.1 |
| 20260507102804 | 33 | 0 | 0.0 | 0.0 | 0.00 | 0.00 | 0.00 | 56 | 1011.1 |
| 20260507102604 | 33 | 0 | 0.0 | 0.0 | 0.00 | 0.00 | 0.00 | 57 | 1011.1 |
| 20260507102425 | 33 | 0 | 0.0 | 0.0 | 0.00 | 0.00 | 0.00 | 57 | 1011.1 |
| 20260507102225 | 33 | 0 | 0.0 | 0.0 | 0.00 | 0.00 | 0.00 | 56 | 1011.1 |
| 20260507102025 | 33 | 0 | 0.0 | 0.0 | 0.00 | 0.00 | 0.00 | 56 | 1011.1 |
| 20260507101804 | 33 | 0 | 0.0 | 0.0 | 0.00 | 0.00 | 0.00 | 56 | 1011.1 |
| 20260507101604 | 33 | 0 | 0.0 | 0.0 | 0.00 | 0.00 | 0.00 | 56 | 1011.1 |
| 20260507101404 | 33 | 0 | 0.0 | 0.0 | 0.00 | 0.00 | 0.00 | 56 | 1011.1 |
| 20260507101204 | 33 | 0 | 0.0 | 0.0 | 0.00 | 0.00 | 0.00 | 56 | 1011.1 |
| 20260507101004 | 33 | 0 | 0.0 | 0.0 | 0.00 | 0.00 | 0.00 | 56 | 1011.2 |
| 20260507100804 | 33 | 0 | 0.0 | 0.0 | 0.00 | 0.00 | 0.00 | 56 | 1011.2 |
| 20260507100604 | 33 | 0 | 0.0 | 0.0 | 0.00 | 0.00 | 0.00 | 56 | 1011.2 |
| 20260507100404 | 33 | 0 | 0.0 | 0.0 | 0.00 | 0.00 | 0.00 | 56 | 1011.2 |
| 20260507100204 | 33 | 0 | 0.0 | 0.0 | 0.00 | 0.00 | 0.00 | 56 | 1011.2 |
| 20260507100004 | 33 | 0 | 0.0 | 0.0 | 0.00 | 0.00 | 0.00 | 56 | 1011.2 |
| 20260507095804 | 33 | 0 | 0.0 | 0.0 | 0.00 | 0.00 | 0.00 | 55 | 1011.3 |
| 20260507095604 | 33 | 0 | 0.0 | 0.0 | 0.00 | 0.00 | 0.00 | 55 | 1011.1 |
| 20260507095404 | 33 | 0 | 0.0 | 0.0 | 0.00 | 0.00 | 0.00 | 55 | 1011.1 |
| 20260507095203 | 33 | 0 | 0.0 | 0.0 | 0.00 | 0.00 | 0.00 | 55 | 1011.2 |
| 20260507095004 | 33 | 0 | 0.0 | 0.0 | 0.00 | 0.00 | 0.00 | 55 | 1011.2 |
| 20260507094804 | 33 | 0 | 0.0 | 0.0 | 0.00 | 0.00 | 0.00 | 55 | 1011.2 |
| 20260507094604 | 34 | 0 | 0.0 | 0.0 | 0.00 | 0.00 | 0.00 | 55 | 1011.2 |
| 20260507094404 | 34 | 0 | 0.0 | 0.0 | 0.00 | 0.00 | 0.00 | 55 | 1011.2 |
| 20260507094204 | 34 | 0 | 0.0 | 0.0 | 0.00 | 0.00 | 0.00 | 56 | 1011.2 |
| 20260507094004 | 34 | 0 | 0.0 | 0.0 | 0.00 | 0.00 | 0.00 | 56 | 1011.3 |
| 20260507093803 | 34 | 0 | 0.0 | 0.0 | 0.00 | 0.00 | 0.00 | 56 | 1011.3 |
| 20260507093604 | 34 | 0 | 0.0 | 0.0 | 0.00 | 0.00 | 0.00 | 55 | 1011.2 |
| 20260507093404 | 34 | 0 | 0.0 | 0.0 | 0.00 | 0.00 | 0.00 | 55 | 1011.2 |
| 20260507093204 | 34 | 0 | 0.0 | 0.0 | 0.00 | 0.00 | 0.00 | 56 | 1011.2 |
| 20260507093004 | 34 | 0 | 0.0 | 0.0 | 0.00 | 0.00 | 0.00 | 55 | 1011.2 |
| 20260507092804 | 34 | 0 | 0.0 | 0.0 | 0.00 | 0.00 | 0.00 | 55 | 1011.1 |
| 20260507092604 | 34 | 0 | 0.0 | 0.0 | 0.00 | 0.00 | 0.00 | 55 | 1011.1 |
| 20260507092404 | 34 | 0 | 0.0 | 0.0 | 0.00 | 0.00 | 0.00 | 55 | 1011.2 |
| 20260507092204 | 34 | 0 | 0.0 | 0.0 | 0.00 | 0.00 | 0.00 | 55 | 1011.1 |
| 20260507092004 | 34 | 0 | 0.0 | 0.0 | 0.00 | 0.00 | 0.00 | 55 | 1011.1 |
| 20260507091804 | 34 | 0 | 0.0 | 0.0 | 0.00 | 0.00 | 0.00 | 55 | 1011.1 |
| 20260507091604 | 34 | 0 | 0.0 | 0.0 | 0.00 | 0.00 | 0.00 | 55 | 1011.0 |
| 20260507091404 | 34 | 0 | 0.0 | 0.0 | 0.00 | 0.00 | 0.00 | 55 | 1011.0 |
| 20260507091204 | 34 | 0 | 0.0 | 0.0 | 0.00 | 0.00 | 0.00 | 55 | 1011.1 |
| 20260507091004 | 34 | 0 | 0.0 | 0.0 | 0.00 | 0.00 | 0.00 | 55 | 1011.1 |
| 20260507090805 | 34 | 0 | 0.0 | 0.0 | 0.00 | 0.00 | 0.00 | 55 | 1011.1 |
| 20260507090604 | 34 | 0 | 0.0 | 0.0 | 0.00 | 0.00 | 0.00 | 55 | 1011.1 |
| 20260507090403 | 34 | 0 | 0.0 | 0.0 | 0.00 | 0.00 | 0.00 | 55 | 1011.1 |
| 20260507090204 | 34 | 0 | 0.0 | 0.0 | 0.00 | 0.00 | 0.00 | 54 | 1011.0 |
| 20260507090005 | 34 | 0 | 0.0 | 0.0 | 0.00 | 0.00 | 0.00 | 55 | 1011.0 |
| 20260507085804 | 34 | 0 | 0.0 | 0.0 | 0.00 | 0.00 | 0.00 | 55 | 1011.0 |
| 20260507085604 | 34 | 0 | 0.0 | 0.0 | 0.00 | 0.00 | 0.00 | 55 | 1011.0 |
| 20260507085403 | 34 | 0 | 0.0 | 0.0 | 0.00 | 0.00 | 0.00 | 54 | 1011.0 |
| 20260507085204 | 34 | 0 | 0.0 | 0.0 | 0.00 | 0.00 | 0.00 | 54 | 1011.0 |
| 20260507085003 | 34 | 0 | 0.0 | 0.0 | 0.00 | 0.00 | 0.00 | 54 | 1011.0 |
| 20260507084825 | 34 | 0 | 0.0 | 0.0 | 0.00 | 0.00 | 0.00 | 54 | 1011.0 |
| 20260507084624 | 34 | 0 | 0.0 | 0.0 | 0.00 | 0.00 | 0.00 | 54 | 1011.0 |
| 20260507084425 | 34 | 0 | 0.0 | 0.0 | 0.00 | 0.00 | 0.00 | 55 | 1011.0 |
| 20260507084204 | 34 | 0 | 0.0 | 0.0 | 0.00 | 0.00 | 0.00 | 54 | 1011.0 |
| 20260507084004 | 34 | 0 | 0.0 | 0.0 | 0.00 | 0.00 | 0.00 | 54 | 1011.0 |
| 20260507083804 | 34 | 0 | 0.0 | 0.0 | 0.00 | 0.00 | 0.00 | 54 | 1011.0 |
| 20260507083604 | 34 | 0 | 0.0 | 0.0 | 0.00 | 0.00 | 0.00 | 54 | 1011.0 |
| 20260507083404 | 34 | 0 | 0.0 | 0.0 | 0.00 | 0.00 | 0.00 | 54 | 1011.0 |
| 20260507083204 | 34 | 0 | 0.0 | 0.0 | 0.00 | 0.00 | 0.00 | 54 | 1011.0 |
| 20260507083004 | 34 | 0 | 0.0 | 0.0 | 0.00 | 0.00 | 0.00 | 54 | 1011.1 |
| 20260507082804 | 34 | 0 | 0.0 | 0.0 | 0.00 | 0.00 | 0.00 | 54 | 1011.0 |
| 20260507082604 | 34 | 0 | 0.0 | 0.0 | 0.00 | 0.00 | 0.00 | 54 | 1011.0 |
| 20260507082425 | 34 | 0 | 0.0 | 0.0 | 0.00 | 0.00 | 0.00 | 54 | 1011.0 |
| 20260507082225 | 34 | 0 | 0.0 | 0.0 | 0.00 | 0.00 | 0.00 | 54 | 1011.1 |
| 20260507082025 | 34 | 0 | 0.0 | 0.0 | 0.00 | 0.00 | 0.00 | 54 | 1011.0 |
| 20260507081804 | 34 | 0 | 0.0 | 0.0 | 0.00 | 0.00 | 0.00 | 53 | 1011.0 |
| 20260507081604 | 34 | 0 | 0.0 | 0.9 | 0.00 | 0.00 | 0.00 | 53 | 1011.0 |
| 20260507081404 | 34 | 0 | 0.0 | 2.6 | 0.00 | 0.00 | 0.00 | 53 | 1011.0 |
| 20260507081225 | 34 | 0 | 0.0 | 2.6 | 0.00 | 0.00 | 0.00 | 53 | 1011.0 |
| 20260507081025 | 34 | 0 | 0.0 | 2.6 | 0.00 | 0.00 | 0.00 | 52 | 1011.1 |
| 20260507080825 | 34 | 246 | 0.0 | 2.6 | 0.00 | 0.00 | 0.00 | 53 | 1011.1 |
| 20260507080604 | 34 | 246 | 0.9 | 2.6 | 0.00 | 0.00 | 0.00 | 53 | 1011.1 |
| 20260507080405 | 34 | 247 | 1.7 | 1.7 | 0.00 | 0.00 | 0.00 | 53 | 1011.1 |
| 20260507080203 | 34 | 247 | 0.0 | 1.7 | 0.00 | 0.00 | 0.00 | 53 | 1011.2 |
| 20260507080004 | 34 | 0 | 0.0 | 0.0 | 0.00 | 0.00 | 0.00 | 53 | 1011.3 |
| 20260507075803 | 34 | 0 | 0.0 | 0.0 | 0.00 | 0.00 | 0.00 | 53 | 1011.2 |
| 20260507075603 | 34 | 0 | 0.0 | 0.9 | 0.00 | 0.00 | 0.00 | 53 | 1011.2 |
| 20260507075404 | 35 | 0 | 0.0 | 0.9 | 0.00 | 0.00 | 0.00 | 53 | 1011.3 |
| 20260507075203 | 35 | 0 | 0.0 | 0.9 | 0.00 | 0.00 | 0.00 | 53 | 1011.3 |
| 20260507075004 | 35 | 0 | 0.0 | 0.9 | 0.00 | 0.00 | 0.00 | 52 | 1011.3 |
| 20260507074804 | 35 | 247 | 0.0 | 1.7 | 0.00 | 0.00 | 0.00 | 52 | 1011.3 |
| 20260507074604 | 35 | 0 | 0.0 | 1.7 | 0.00 | 0.00 | 0.00 | 52 | 1011.3 |
| 20260507074404 | 35 | 246 | 0.0 | 1.7 | 0.00 | 0.00 | 0.00 | 52 | 1011.4 |
| 20260507074204 | 35 | 247 | 0.0 | 1.7 | 0.00 | 0.00 | 0.00 | 52 | 1011.4 |
| 20260507074003 | 35 | 247 | 0.9 | 1.7 | 0.00 | 0.00 | 0.00 | 52 | 1011.4 |
| 20260507073804 | 35 | 247 | 0.9 | 1.7 | 0.00 | 0.00 | 0.00 | 52 | 1011.4 |
| 20260507073603 | 35 | 247 | 0.9 | 1.7 | 0.00 | 0.00 | 0.00 | 52 | 1011.4 |
| 20260507073404 | 35 | 247 | 0.9 | 1.7 | 0.00 | 0.00 | 0.00 | 52 | 1011.4 |
| 20260507073204 | 36 | 247 | 0.9 | 1.7 | 0.00 | 0.00 | 0.00 | 52 | 1011.4 |
| 20260507073004 | 36 | 247 | 0.0 | 1.7 | 0.00 | 0.00 | 0.00 | 52 | 1011.4 |
| 20260507072804 | 36 | 0 | 0.0 | 1.7 | 0.00 | 0.00 | 0.00 | 52 | 1011.4 |
| 20260507072604 | 36 | 0 | 0.0 | 1.7 | 0.00 | 0.00 | 0.00 | 52 | 1011.4 |
| 20260507072425 | 36 | 0 | 0.0 | 1.7 | 0.00 | 0.00 | 0.00 | 52 | 1011.4 |
| 20260507072225 | 36 | 247 | 0.9 | 1.7 | 0.00 | 0.00 | 0.00 | 52 | 1011.4 |
| 20260507072025 | 36 | 247 | 0.9 | 1.7 | 0.00 | 0.00 | 0.00 | 52 | 1011.4 |
| 20260507071804 | 36 | 247 | 0.9 | 1.7 | 0.00 | 0.00 | 0.00 | 52 | 1011.4 |
| 20260507071604 | 36 | 247 | 0.0 | 0.9 | 0.00 | 0.00 | 0.00 | 51 | 1011.4 |
| 20260507071403 | 36 | 247 | 0.0 | 0.9 | 0.00 | 0.00 | 0.00 | 51 | 1011.4 |
| 20260507071225 | 36 | 247 | 0.0 | 0.9 | 0.00 | 0.00 | 0.00 | 51 | 1011.4 |
| 20260507071025 | 36 | 0 | 0.0 | 0.9 | 0.00 | 0.00 | 0.00 | 51 | 1011.4 |
| 20260507070825 | 36 | 247 | 0.0 | 0.9 | 0.00 | 0.00 | 0.00 | 51 | 1011.4 |
| 20260507070604 | 36 | 247 | 0.0 | 0.9 | 0.00 | 0.00 | 0.00 | 51 | 1011.4 |
| 20260507070404 | 36 | 247 | 0.0 | 1.7 | 0.00 | 0.00 | 0.00 | 51 | 1011.3 |
| 20260507070203 | 36 | 0 | 0.0 | 1.7 | 0.00 | 0.00 | 0.00 | 51 | 1011.3 |
| 20260507070025 | 36 | 247 | 0.0 | 1.7 | 0.00 | 0.00 | 0.00 | 51 | 1011.4 |
| 20260507065824 | 36 | 247 | 0.9 | 2.6 | 0.00 | 0.00 | 0.00 | 51 | 1011.4 |
| 20260507065625 | 36 | 247 | 0.9 | 2.6 | 0.00 | 0.00 | 0.00 | 50 | 1011.4 |
| 20260507065404 | 36 | 238 | 0.9 | 2.6 | 0.00 | 0.00 | 0.00 | 50 | 1011.5 |
| 20260507065204 | 36 | 226 | 0.9 | 2.6 | 0.00 | 0.00 | 0.00 | 50 | 1011.5 |
| 20260507065004 | 36 | 198 | 1.7 | 2.6 | 0.00 | 0.00 | 0.00 | 50 | 1011.5 |
| 20260507064804 | 36 | 0 | 0.0 | 0.0 | 0.00 | 0.00 | 0.00 | 50 | 1011.5 |
| 20260507064604 | 36 | 0 | 0.0 | 0.0 | 0.00 | 0.00 | 0.00 | 50 | 1011.4 |
| 20260507064404 | 37 | 0 | 0.0 | 0.0 | 0.00 | 0.00 | 0.00 | 49 | 1011.4 |
| 20260507064204 | 37 | 0 | 0.0 | 0.0 | 0.00 | 0.00 | 0.00 | 49 | 1011.4 |
| 20260507064004 | 37 | 0 | 0.0 | 0.0 | 0.00 | 0.00 | 0.00 | 49 | 1011.5 |
| 20260507063805 | 37 | 0 | 0.0 | 0.0 | 0.00 | 0.00 | 0.00 | 49 | 1011.5 |
| 20260507063604 | 37 | 0 | 0.0 | 0.0 | 0.00 | 0.00 | 0.00 | 49 | 1011.5 |
| 20260507063403 | 37 | 0 | 0.0 | 0.0 | 0.00 | 0.00 | 0.00 | 49 | 1011.6 |
| 20260507063204 | 37 | 0 | 0.0 | 0.0 | 0.00 | 0.00 | 0.00 | 49 | 1011.5 |
| 20260507063004 | 37 | 0 | 0.0 | 0.9 | 0.00 | 0.00 | 0.00 | 49 | 1011.6 |
| 20260507062804 | 37 | 0 | 0.0 | 0.9 | 0.00 | 0.00 | 0.00 | 49 | 1011.5 |
| 20260507062604 | 37 | 0 | 0.0 | 1.7 | 0.00 | 0.00 | 0.00 | 49 | 1011.6 |
| 20260507062403 | 37 | 0 | 0.0 | 2.6 | 0.00 | 0.00 | 0.00 | 49 | 1011.6 |
| 20260507062204 | 37 | 184 | 0.0 | 2.6 | 0.00 | 0.00 | 0.00 | 49 | 1011.7 |
| 20260507062004 | 37 | 0 | 0.0 | 2.6 | 0.00 | 0.00 | 0.00 | 49 | 1011.6 |
| 20260507061824 | 37 | 184 | 0.0 | 2.6 | 0.00 | 0.00 | 0.00 | 48 | 1011.6 |
| 20260507061625 | 38 | 183 | 0.9 | 2.6 | 0.00 | 0.00 | 0.00 | 48 | 1011.7 |
| 20260507061425 | 38 | 171 | 0.0 | 2.6 | 0.00 | 0.00 | 0.00 | 48 | 1011.7 |
| 20260507061204 | 38 | 180 | 0.9 | 1.7 | 0.00 | 0.00 | 0.00 | 48 | 1011.7 |
| 20260507061004 | 38 | 208 | 0.9 | 1.7 | 0.00 | 0.00 | 0.00 | 48 | 1011.8 |
| 20260507060804 | 38 | 0 | 0.0 | 1.7 | 0.00 | 0.00 | 0.00 | 48 | 1011.8 |
| 20260507060624 | 38 | 208 | 0.0 | 1.7 | 0.00 | 0.00 | 0.00 | 48 | 1011.7 |
| 20260507060425 | 38 | 208 | 0.0 | 1.7 | 0.00 | 0.00 | 0.00 | 48 | 1011.7 |
| 20260507060225 | 38 | 208 | 0.0 | 1.7 | 0.00 | 0.00 | 0.00 | 48 | 1011.7 |
| 20260507060004 | 38 | 208 | 0.9 | 1.7 | 0.00 | 0.00 | 0.00 | 48 | 1011.7 |
| 20260507055804 | 38 | 208 | 0.0 | 1.7 | 0.00 | 0.00 | 0.00 | 48 | 1011.8 |
| 20260507055604 | 38 | 208 | 0.0 | 1.7 | 0.00 | 0.00 | 0.00 | 47 | 1011.8 |
| 20260507055404 | 38 | 208 | 0.0 | 1.7 | 0.00 | 0.00 | 0.00 | 47 | 1011.8 |
| 20260507055204 | 38 | 208 | 0.0 | 1.7 | 0.00 | 0.00 | 0.00 | 47 | 1011.8 |
| 20260507055004 | 38 | 212 | 0.9 | 2.6 | 0.00 | 0.00 | 0.00 | 47 | 1011.8 |
| 20260507054804 | 39 | 212 | 0.9 | 2.6 | 0.00 | 0.00 | 0.00 | 47 | 1011.7 |
| 20260507054603 | 39 | 209 | 0.9 | 2.6 | 0.00 | 0.00 | 0.00 | 47 | 1011.7 |
| 20260507054404 | 39 | 209 | 0.9 | 2.6 | 0.00 | 0.00 | 0.00 | 46 | 1011.7 |
| 20260507054204 | 39 | 204 | 1.7 | 2.6 | 0.00 | 0.00 | 0.00 | 46 | 1011.7 |
| 20260507054004 | 39 | 202 | 0.9 | 1.7 | 0.00 | 0.00 | 0.00 | 46 | 1011.7 |
| 20260507053804 | 39 | 201 | 0.9 | 1.7 | 0.00 | 0.00 | 0.00 | 46 | 1011.8 |
| 20260507053604 | 39 | 194 | 0.9 | 1.7 | 0.00 | 0.00 | 0.00 | 46 | 1011.8 |
| 20260507053404 | 39 | 162 | 0.9 | 1.7 | 0.00 | 0.00 | 0.00 | 45 | 1011.7 |
| 20260507053204 | 39 | 148 | 0.9 | 1.7 | 0.00 | 0.00 | 0.00 | 45 | 1011.7 |
| 20260507053004 | 40 | 0 | 0.0 | 1.7 | 0.00 | 0.00 | 0.00 | 44 | 1011.7 |
| 20260507052804 | 40 | 124 | 0.0 | 1.7 | 0.00 | 0.00 | 0.00 | 45 | 1011.8 |
| 20260507052604 | 40 | 113 | 0.0 | 1.7 | 0.00 | 0.00 | 0.00 | 44 | 1011.8 |
| 20260507052404 | 40 | 113 | 0.9 | 1.7 | 0.00 | 0.00 | 0.00 | 44 | 1011.8 |
| 20260507052204 | 40 | 113 | 0.9 | 3.5 | 0.00 | 0.00 | 0.00 | 44 | 1011.9 |
| 20260507052004 | 40 | 113 | 0.9 | 3.5 | 0.00 | 0.00 | 0.00 | 44 | 1011.9 |
| 20260507051803 | 40 | 0 | 0.0 | 3.5 | 0.00 | 0.00 | 0.00 | 44 | 1011.9 |
| 20260507051604 | 40 | 113 | 0.9 | 3.5 | 0.00 | 0.00 | 0.00 | 44 | 1011.9 |
| 20260507051404 | 40 | 121 | 1.7 | 3.5 | 0.00 | 0.00 | 0.00 | 44 | 1011.9 |
| 20260507051204 | 40 | 139 | 1.7 | 3.5 | 0.00 | 0.00 | 0.00 | 43 | 1011.9 |
| 20260507051004 | 40 | 166 | 0.0 | 3.5 | 0.00 | 0.00 | 0.00 | 43 | 1011.9 |
| 20260507050804 | 40 | 151 | 0.0 | 3.5 | 0.00 | 0.00 | 0.00 | 43 | 1011.8 |
| 20260507050604 | 40 | 142 | 1.7 | 3.5 | 0.00 | 0.00 | 0.00 | 43 | 1011.8 |
| 20260507050404 | 41 | 161 | 2.6 | 3.5 | 0.00 | 0.00 | 0.00 | 43 | 1011.9 |
| 20260507050204 | 41 | 183 | 1.7 | 2.6 | 0.00 | 0.00 | 0.00 | 43 | 1011.8 |
| 20260507050005 | 41 | 200 | 1.7 | 2.6 | 0.00 | 0.00 | 0.00 | 43 | 1011.9 |
| 20260507045803 | 41 | 206 | 0.9 | 2.6 | 0.00 | 0.00 | 0.00 | 43 | 1011.9 |
| 20260507045605 | 41 | 206 | 0.9 | 3.5 | 0.00 | 0.00 | 0.00 | 43 | 1011.9 |
| 20260507045425 | 42 | 227 | 1.7 | 9.6 | 0.00 | 0.00 | 0.00 | 43 | 1011.9 |
| 20260507045225 | 42 | 311 | 0.0 | 9.6 | 0.00 | 0.00 | 0.00 | 42 | 1011.9 |
| 20260507045025 | 42 | 327 | 0.9 | 9.6 | 0.00 | 0.00 | 0.00 | 42 | 1012.0 |
| 20260507044804 | 43 | 351 | 1.7 | 9.6 | 0.00 | 0.00 | 0.00 | 41 | 1012.0 |
| 20260507044604 | 43 | 345 | 2.6 | 9.6 | 0.00 | 0.00 | 0.00 | 41 | 1012.0 |
| 20260507044403 | 43 | 326 | 1.7 | 9.6 | 0.00 | 0.00 | 0.00 | 41 | 1012.0 |
| 20260507044203 | 43 | 357 | 2.6 | 9.6 | 0.00 | 0.00 | 0.00 | 41 | 1012.1 |
| 20260507044004 | 42 | 337 | 3.5 | 9.6 | 0.00 | 0.00 | 0.00 | 41 | 1012.1 |
| 20260507043804 | 42 | 307 | 3.5 | 9.6 | 0.00 | 0.00 | 0.00 | 41 | 1012.1 |
| 20260507043604 | 41 | 259 | 4.3 | 9.6 | 0.00 | 0.00 | 0.00 | 41 | 1012.1 |
| 20260507043404 | 41 | 263 | 4.3 | 9.6 | 0.00 | 0.00 | 0.00 | 43 | 1012.1 |
| 20260507043204 | 40 | 264 | 4.3 | 7.8 | 0.00 | 0.00 | 0.00 | 44 | 1012.2 |
| 20260507043025 | 40 | 272 | 1.7 | 7.8 | 0.00 | 0.00 | 0.00 | 45 | 1012.2 |
| 20260507042825 | 40 | 0 | 0.0 | 1.7 | 0.00 | 0.00 | 0.00 | 46 | 1012.3 |
| 20260507042624 | 40 | 30 | 0.0 | 3.5 | 0.00 | 0.00 | 0.00 | 46 | 1012.2 |
| 20260507042403 | 41 | 31 | 0.9 | 3.5 | 0.00 | 0.00 | 0.00 | 46 | 1012.2 |
| 20260507042204 | 41 | 42 | 0.0 | 3.5 | 0.00 | 0.00 | 0.00 | 45 | 1012.2 |
| 20260507042004 | 41 | 42 | 0.9 | 3.5 | 0.00 | 0.00 | 0.00 | 44 | 1012.1 |
| 20260507041804 | 41 | 43 | 0.9 | 3.5 | 0.00 | 0.00 | 0.00 | 45 | 1012.4 |
| 20260507041604 | 41 | 44 | 0.9 | 3.5 | 0.00 | 0.00 | 0.00 | 45 | 1012.4 |
| 20260507041404 | 41 | 43 | 1.7 | 4.3 | 0.00 | 0.00 | 0.00 | 45 | 1012.4 |
| 20260507041225 | 41 | 215 | 0.9 | 4.3 | 0.00 | 0.00 | 0.00 | 44 | 1012.5 |
| 20260507041025 | 41 | 217 | 1.7 | 4.3 | 0.00 | 0.00 | 0.00 | 44 | 1012.4 |
| 20260507040825 | 42 | 217 | 2.6 | 4.3 | 0.00 | 0.00 | 0.00 | 45 | 1012.4 |
| 20260507040604 | 42 | 222 | 2.6 | 4.3 | 0.00 | 0.00 | 0.00 | 45 | 1012.4 |
| 20260507040404 | 42 | 255 | 1.7 | 3.5 | 0.00 | 0.00 | 0.00 | 44 | 1012.6 |
| 20260507040204 | 42 | 288 | 1.7 | 3.5 | 0.00 | 0.00 | 0.00 | 45 | 1012.6 |
| 20260507040004 | 42 | 290 | 0.9 | 3.5 | 0.00 | 0.00 | 0.00 | 45 | 1012.6 |
| 20260507035804 | 42 | 296 | 1.7 | 3.5 | 0.00 | 0.00 | 0.00 | 44 | 1012.6 |
| 20260507035604 | 43 | 299 | 1.7 | 3.5 | 0.00 | 0.00 | 0.00 | 45 | 1012.6 |
| 20260507035404 | 43 | 250 | 0.9 | 2.6 | 0.00 | 0.00 | 0.00 | 45 | 1012.6 |
| 20260507035204 | 43 | 250 | 1.7 | 2.6 | 0.00 | 0.00 | 0.00 | 44 | 1012.6 |
| 20260507035004 | 43 | 245 | 1.7 | 2.6 | 0.00 | 0.00 | 0.00 | 45 | 1012.6 |
| 20260507034804 | 44 | 242 | 0.0 | 1.7 | 0.00 | 0.00 | 0.00 | 44 | 1012.7 |
| 20260507034604 | 44 | 242 | 0.9 | 1.7 | 0.00 | 0.00 | 0.00 | 43 | 1012.8 |
| 20260507034404 | 44 | 242 | 0.9 | 1.7 | 0.00 | 0.00 | 0.00 | 43 | 1012.7 |
| 20260507034204 | 44 | 242 | 0.9 | 1.7 | 0.00 | 0.00 | 0.00 | 43 | 1012.7 |
| 20260507034004 | 44 | 242 | 0.9 | 1.7 | 0.00 | 0.00 | 0.00 | 42 | 1012.7 |
| 20260507033804 | 45 | 242 | 0.9 | 2.6 | 0.00 | 0.00 | 0.00 | 42 | 1012.8 |
| 20260507033604 | 45 | 242 | 0.9 | 2.6 | 0.00 | 0.00 | 0.00 | 43 | 1012.8 |
| 20260507033404 | 45 | 242 | 0.0 | 2.6 | 0.00 | 0.00 | 0.00 | 42 | 1012.8 |
| 20260507033204 | 45 | 242 | 0.9 | 2.6 | 0.00 | 0.00 | 0.00 | 41 | 1012.8 |
| 20260507033004 | 46 | 242 | 1.7 | 2.6 | 0.00 | 0.00 | 0.00 | 41 | 1012.9 |
| 20260507032804 | 46 | 241 | 1.7 | 4.3 | 0.00 | 0.00 | 0.00 | 41 | 1012.9 |
| 20260507032604 | 46 | 197 | 0.9 | 5.2 | 0.00 | 0.00 | 0.00 | 39 | 1013.0 |
| 20260507032425 | 46 | 178 | 0.9 | 5.2 | 0.00 | 0.00 | 0.00 | 40 | 1013.0 |
| 20260507032225 | 46 | 122 | 0.9 | 5.2 | 0.00 | 0.00 | 0.00 | 40 | 1013.1 |
| 20260507032027 | 46 | 116 | 2.6 | 5.2 | 0.00 | 0.00 | 0.00 | 39 | 1013.1 |
| 20260507031804 | 46 | 152 | 3.5 | 5.2 | 0.00 | 0.00 | 0.00 | 39 | 1013.0 |
| 20260507031604 | 46 | 145 | 2.6 | 4.3 | 0.00 | 0.00 | 0.00 | 38 | 1013.1 |
| 20260507031404 | 46 | 184 | 0.9 | 4.3 | 0.00 | 0.00 | 0.00 | 40 | 1013.1 |
| 20260507031204 | 46 | 208 | 2.6 | 4.3 | 0.00 | 0.00 | 0.00 | 40 | 1013.1 |
| 20260507031004 | 46 | 208 | 1.7 | 3.5 | 0.00 | 0.00 | 0.00 | 40 | 1013.0 |
| 20260507030804 | 46 | 222 | 1.7 | 3.5 | 0.00 | 0.00 | 0.00 | 40 | 1013.1 |
| 20260507030625 | 46 | 200 | 0.9 | 3.5 | 0.00 | 0.00 | 0.00 | 40 | 1013.1 |
| 20260507030425 | 46 | 199 | 0.9 | 3.5 | 0.00 | 0.00 | 0.00 | 40 | 1013.1 |
| 20260507030225 | 46 | 205 | 1.7 | 3.5 | 0.00 | 0.00 | 0.00 | 40 | 1013.2 |
| 20260507030004 | 46 | 222 | 1.7 | 3.5 | 0.00 | 0.00 | 0.00 | 40 | 1013.1 |
| 20260507025804 | 46 | 205 | 0.9 | 3.5 | 0.00 | 0.00 | 0.00 | 40 | 1013.2 |
| 20260507025604 | 46 | 205 | 0.9 | 3.5 | 0.00 | 0.00 | 0.00 | 41 | 1013.2 |
| 20260507025403 | 46 | 210 | 1.7 | 3.5 | 0.00 | 0.00 | 0.00 | 41 | 1013.2 |
| 20260507025204 | 46 | 192 | 1.7 | 3.5 | 0.00 | 0.00 | 0.00 | 41 | 1013.2 |
| 20260507025004 | 45 | 194 | 0.9 | 3.5 | 0.00 | 0.00 | 0.00 | 42 | 1013.3 |
| 20260507024804 | 45 | 189 | 1.7 | 3.5 | 0.00 | 0.00 | 0.00 | 42 | 1013.3 |
| 20260507024604 | 45 | 198 | 1.7 | 3.5 | 0.00 | 0.00 | 0.00 | 42 | 1013.3 |
| 20260507024404 | 45 | 158 | 1.7 | 3.5 | 0.00 | 0.00 | 0.00 | 41 | 1013.3 |
| 20260507024204 | 45 | 0 | 0.0 | 0.0 | 0.00 | 0.00 | 0.00 | 43 | 1013.3 |
| 20260507024005 | 45 | 0 | 0.0 | 0.0 | 0.00 | 0.00 | 0.00 | 44 | 1013.3 |
| 20260507023807 | 45 | 0 | 0.0 | 0.0 | 0.00 | 0.00 | 0.00 | 44 | 1013.3 |
| 20260507023603 | 45 | 0 | 0.0 | 0.0 | 0.00 | 0.00 | 0.00 | 44 | 1013.3 |
| 20260507023404 | 45 | 0 | 0.0 | 0.0 | 0.00 | 0.00 | 0.00 | 43 | 1013.3 |
| 20260507023204 | 45 | 0 | 0.0 | 0.0 | 0.00 | 0.00 | 0.00 | 43 | 1013.3 |
| 20260507023004 | 45 | 0 | 0.0 | 0.0 | 0.00 | 0.00 | 0.00 | 42 | 1013.4 |
| 20260507022804 | 45 | 0 | 0.0 | 0.0 | 0.00 | 0.00 | 0.00 | 42 | 1013.3 |
| 20260507022604 | 45 | 0 | 0.0 | 0.0 | 0.00 | 0.00 | 0.00 | 43 | 1013.3 |
| 20260507022425 | 45 | 0 | 0.0 | 0.0 | 0.00 | 0.00 | 0.00 | 43 | 1013.3 |
| 20260507022225 | 46 | 0 | 0.0 | 0.0 | 0.00 | 0.00 | 0.00 | 42 | 1013.4 |
| 20260507022024 | 46 | 0 | 0.0 | 0.0 | 0.00 | 0.00 | 0.00 | 42 | 1013.4 |
| 20260507021824 | 46 | 0 | 0.0 | 0.0 | 0.00 | 0.00 | 0.00 | 42 | 1013.4 |
| 20260507021625 | 46 | 0 | 0.0 | 0.0 | 0.00 | 0.00 | 0.00 | 42 | 1013.4 |
| 20260507021425 | 46 | 0 | 0.0 | 0.0 | 0.00 | 0.00 | 0.00 | 42 | 1013.4 |
| 20260507021204 | 46 | 0 | 0.0 | 0.0 | 0.00 | 0.00 | 0.00 | 42 | 1013.4 |
| 20260507021004 | 46 | 0 | 0.0 | 0.0 | 0.00 | 0.00 | 0.00 | 41 | 1013.5 |
| 20260507020804 | 47 | 0 | 0.0 | 0.0 | 0.00 | 0.00 | 0.00 | 42 | 1013.5 |
| 20260507020604 | 47 | 0 | 0.0 | 0.0 | 0.00 | 0.00 | 0.00 | 41 | 1013.5 |
| 20260507020404 | 47 | 0 | 0.0 | 0.0 | 0.00 | 0.00 | 0.00 | 40 | 1013.5 |
| 20260507020204 | 47 | 0 | 0.0 | 0.0 | 0.00 | 0.00 | 0.00 | 40 | 1013.5 |
| 20260507020004 | 47 | 0 | 0.0 | 0.0 | 0.00 | 0.00 | 0.00 | 40 | 1013.5 |
| 20260507015804 | 47 | 0 | 0.0 | 0.9 | 0.00 | 0.00 | 0.00 | 40 | 1013.5 |
| 20260507015604 | 47 | 0 | 0.0 | 0.9 | 0.00 | 0.00 | 0.00 | 40 | 1013.5 |
| 20260507015425 | 48 | 0 | 0.0 | 0.9 | 0.00 | 0.00 | 0.00 | 40 | 1013.5 |
| 20260507015225 | 48 | 0 | 0.0 | 0.9 | 0.00 | 0.00 | 0.00 | 40 | 1013.5 |
| 20260507015025 | 48 | 0 | 0.0 | 0.9 | 0.00 | 0.00 | 0.00 | 40 | 1013.5 |
| 20260507014825 | 48 | 0 | 0.0 | 0.9 | 0.00 | 0.00 | 0.00 | 40 | 1013.5 |
| 20260507014625 | 48 | 0 | 0.0 | 0.9 | 0.00 | 0.00 | 0.00 | 39 | 1013.5 |
| 20260507014425 | 48 | 0 | 0.0 | 3.5 | 0.00 | 0.00 | 0.00 | 39 | 1013.5 |
| 20260507014204 | 48 | 0 | 0.0 | 4.3 | 0.00 | 0.00 | 0.00 | 39 | 1013.5 |
| 20260507014004 | 49 | 0 | 0.0 | 4.3 | 0.00 | 0.00 | 0.00 | 39 | 1013.6 |
| 20260507013804 | 49 | 165 | 0.9 | 6.1 | 0.00 | 0.00 | 0.00 | 38 | 1013.6 |
| 20260507013625 | 49 | 149 | 1.7 | 6.1 | 0.00 | 0.00 | 0.00 | 38 | 1013.5 |
| 20260507013425 | 49 | 150 | 2.6 | 6.1 | 0.00 | 0.00 | 0.00 | 38 | 1013.6 |
| 20260507013225 | 49 | 152 | 0.9 | 6.1 | 0.00 | 0.00 | 0.00 | 38 | 1013.6 |
| 20260507013025 | 49 | 156 | 1.7 | 6.1 | 0.00 | 0.00 | 0.00 | 38 | 1013.5 |
| 20260507012825 | 49 | 150 | 3.5 | 6.1 | 0.00 | 0.00 | 0.00 | 37 | 1013.5 |
| 20260507012625 | 50 | 148 | 3.5 | 5.2 | 0.00 | 0.00 | 0.00 | 37 | 1013.5 |
| 20260507012404 | 50 | 145 | 3.5 | 5.2 | 0.00 | 0.00 | 0.00 | 37 | 1013.5 |
| 20260507012204 | 50 | 150 | 3.5 | 5.2 | 0.00 | 0.00 | 0.00 | 37 | 1013.5 |
| 20260507012004 | 50 | 144 | 1.7 | 5.2 | 0.00 | 0.00 | 0.00 | 38 | 1013.6 |
| 20260507011804 | 50 | 145 | 2.6 | 6.1 | 0.00 | 0.00 | 0.00 | 37 | 1013.5 |
| 20260507011607 | 50 | 147 | 3.5 | 6.1 | 0.00 | 0.00 | 0.00 | 37 | 1013.5 |
| 20260507011404 | 50 | 143 | 2.6 | 6.1 | 0.00 | 0.00 | 0.00 | 37 | 1013.5 |
| 20260507011207 | 51 | 125 | 2.6 | 6.1 | 0.00 | 0.00 | 0.00 | 37 | 1013.4 |
| 20260507011004 | 51 | 130 | 3.5 | 6.1 | 0.00 | 0.00 | 0.00 | 36 | 1013.5 |
| 20260507010804 | 51 | 134 | 3.5 | 6.1 | 0.00 | 0.00 | 0.00 | 37 | 1013.5 |
| 20260507010604 | 51 | 138 | 2.6 | 8.7 | 0.00 | 0.00 | 0.00 | 37 | 1013.4 |
| 20260507010404 | 51 | 139 | 3.5 | 8.7 | 0.00 | 0.00 | 0.00 | 36 | 1013.5 |
| 20260507010204 | 51 | 143 | 3.5 | 8.7 | 0.00 | 0.00 | 0.00 | 36 | 1013.5 |
| 20260507010004 | 51 | 142 | 3.5 | 8.7 | 0.00 | 0.00 | 0.00 | 37 | 1013.6 |
| 20260507005804 | 51 | 141 | 3.5 | 8.7 | 0.00 | 0.00 | 0.00 | 36 | 1013.5 |
| 20260507005603 | 51 | 142 | 3.5 | 8.7 | 0.00 | 0.00 | 0.00 | 36 | 1013.6 |
| 20260507005404 | 51 | 145 | 3.5 | 8.7 | 0.00 | 0.00 | 0.00 | 35 | 1013.6 |
| 20260507005204 | 51 | 124 | 4.3 | 8.7 | 0.00 | 0.00 | 0.00 | 35 | 1013.6 |
| 20260507005004 | 51 | 132 | 4.3 | 8.7 | 0.00 | 0.00 | 0.00 | 34 | 1013.6 |
| 20260507004804 | 52 | 124 | 4.3 | 8.7 | 0.00 | 0.00 | 0.00 | 34 | 1013.5 |
| 20260507004607 | 52 | 123 | 5.2 | 8.7 | 0.00 | 0.00 | 0.00 | 34 | 1013.6 |
| 20260507004404 | 52 | 122 | 4.3 | 8.7 | 0.00 | 0.00 | 0.00 | 34 | 1013.5 |
| 20260507004225 | 52 | 127 | 5.2 | 8.7 | 0.00 | 0.00 | 0.00 | 34 | 1013.5 |
| 20260507004025 | 53 | 114 | 3.5 | 8.7 | 0.00 | 0.00 | 0.00 | 35 | 1013.5 |
| 20260507003825 | 53 | 117 | 3.5 | 7.8 | 0.00 | 0.00 | 0.00 | 34 | 1013.5 |
| 20260507003604 | 53 | 129 | 4.3 | 8.7 | 0.00 | 0.00 | 0.00 | 34 | 1013.6 |
| 20260507003404 | 53 | 122 | 4.3 | 8.7 | 0.00 | 0.00 | 0.00 | 33 | 1013.6 |
| 20260507003204 | 53 | 139 | 3.5 | 8.7 | 0.00 | 0.00 | 0.00 | 35 | 1013.6 |
| 20260507003004 | 53 | 135 | 5.2 | 8.7 | 0.00 | 0.00 | 0.00 | 35 | 1013.6 |
| 20260507002804 | 53 | 142 | 3.5 | 7.8 | 0.00 | 0.00 | 0.00 | 34 | 1013.6 |
| 20260507002604 | 53 | 127 | 2.6 | 6.1 | 0.00 | 0.00 | 0.00 | 33 | 1013.7 |
| 20260507002404 | 53 | 136 | 2.6 | 6.1 | 0.00 | 0.00 | 0.00 | 33 | 1013.7 |
| 20260507002204 | 53 | 134 | 3.5 | 6.1 | 0.00 | 0.00 | 0.00 | 34 | 1013.7 |
| 20260507002004 | 53 | 135 | 4.3 | 6.1 | 0.00 | 0.00 | 0.00 | 34 | 1013.7 |
| 20260507001803 | 53 | 114 | 3.5 | 6.1 | 0.00 | 0.00 | 0.00 | 34 | 1013.7 |
| 20260507001604 | 53 | 116 | 2.6 | 6.1 | 0.00 | 0.00 | 0.00 | 34 | 1013.8 |
| 20260507001404 | 53 | 121 | 2.6 | 6.1 | 0.00 | 0.00 | 0.00 | 33 | 1013.9 |
| 20260507001203 | 53 | 120 | 2.6 | 7.8 | 0.00 | 0.00 | 0.00 | 32 | 1013.8 |
| 20260507001004 | 53 | 110 | 1.7 | 7.8 | 0.00 | 0.00 | 0.00 | 32 | 1013.8 |
| 20260507000804 | 53 | 110 | 3.5 | 7.8 | 0.00 | 0.00 | 0.00 | 31 | 1013.8 |
| 20260507000604 | 53 | 109 | 2.6 | 7.8 | 0.00 | 0.00 | 0.00 | 33 | 1013.8 |
| 20260507000405 | 53 | 103 | 4.3 | 7.8 | 0.00 | 0.00 | 0.00 | 32 | 1013.8 |
| 20260507000205 | 53 | 96 | 3.5 | 7.8 | 0.00 | 0.00 | 0.00 | 33 | 1013.9 |
| 20260507000004 | 53 | 96 | 4.3 | 7.8 | 0.00 | 0.00 | 0.00 | 32 | 1013.9 |
| 20260506235804 | 53 | 113 | 3.5 | 7.8 | 0.00 | 0.00 | 0.00 | 33 | 1014.0 |
| 20260506235603 | 53 | 112 | 2.6 | 7.8 | 0.00 | 0.00 | 0.00 | 33 | 1014.0 |
| 20260506235404 | 54 | 104 | 4.3 | 7.8 | 0.00 | 0.00 | 0.00 | 31 | 1014.1 |
| 20260506235204 | 54 | 120 | 4.3 | 7.8 | 0.00 | 0.00 | 0.00 | 32 | 1014.1 |
| 20260506235004 | 54 | 115 | 3.5 | 6.1 | 0.00 | 0.00 | 0.00 | 31 | 1014.2 |
| 20260506234804 | 54 | 124 | 1.7 | 7.8 | 0.00 | 0.00 | 0.00 | 31 | 1014.2 |
| 20260506234604 | 54 | 126 | 2.6 | 7.8 | 0.00 | 0.00 | 0.00 | 32 | 1014.3 |
| 20260506234407 | 54 | 110 | 3.5 | 7.8 | 0.00 | 0.00 | 0.00 | 33 | 1014.3 |
| 20260506234204 | 53 | 122 | 2.6 | 7.8 | 0.00 | 0.00 | 0.00 | 32 | 1014.3 |
| 20260506234004 | 53 | 120 | 4.3 | 7.8 | 0.00 | 0.00 | 0.00 | 32 | 1014.3 |
| 20260506233804 | 53 | 107 | 4.3 | 7.8 | 0.00 | 0.00 | 0.00 | 32 | 1014.3 |
| 20260506233604 | 53 | 153 | 3.5 | 9.6 | 0.00 | 0.00 | 0.00 | 33 | 1014.3 |
| 20260506233404 | 53 | 165 | 3.5 | 10.4 | 0.00 | 0.00 | 0.00 | 32 | 1014.3 |
| 20260506233203 | 53 | 144 | 4.3 | 10.4 | 0.00 | 0.00 | 0.00 | 32 | 1014.3 |
| 20260506233025 | 53 | 156 | 1.7 | 10.4 | 0.00 | 0.00 | 0.00 | 31 | 1014.3 |
| 20260506232825 | 53 | 107 | 5.2 | 11.3 | 0.00 | 0.00 | 0.00 | 31 | 1014.4 |
| 20260506232625 | 54 | 109 | 7.0 | 11.3 | 0.00 | 0.00 | 0.00 | 30 | 1014.4 |
| 20260506232404 | 54 | 134 | 6.1 | 11.3 | 0.00 | 0.00 | 0.00 | 31 | 1014.3 |
| 20260506232204 | 54 | 125 | 7.0 | 11.3 | 0.00 | 0.00 | 0.00 | 31 | 1014.3 |
| 20260506232004 | 55 | 114 | 6.1 | 11.3 | 0.00 | 0.00 | 0.00 | 31 | 1014.4 |
| 20260506231804 | 55 | 103 | 6.1 | 9.6 | 0.00 | 0.00 | 0.00 | 30 | 1014.4 |
| 20260506231604 | 55 | 110 | 5.2 | 9.6 | 0.00 | 0.00 | 0.00 | 31 | 1014.4 |
| 20260506231405 | 55 | 118 | 3.5 | 9.6 | 0.00 | 0.00 | 0.00 | 30 | 1014.4 |
| 20260506231204 | 55 | 125 | 3.5 | 12.2 | 0.00 | 0.00 | 0.00 | 32 | 1014.5 |
| 20260506231004 | 55 | 142 | 4.3 | 12.2 | 0.00 | 0.00 | 0.00 | 30 | 1014.4 |
| 20260506230807 | 55 | 119 | 5.2 | 12.2 | 0.00 | 0.00 | 0.00 | 31 | 1014.4 |
| 20260506230604 | 55 | 118 | 5.2 | 12.2 | 0.00 | 0.00 | 0.00 | 31 | 1014.5 |
| 20260506230404 | 55 | 117 | 6.1 | 12.2 | 0.00 | 0.00 | 0.00 | 32 | 1014.5 |
| 20260506230204 | 55 | 118 | 4.3 | 10.4 | 0.00 | 0.00 | 0.00 | 32 | 1014.5 |
| 20260506230025 | 55 | 110 | 5.2 | 10.4 | 0.00 | 0.00 | 0.00 | 31 | 1014.5 |
| 20260506225825 | 55 | 127 | 4.3 | 10.4 | 0.00 | 0.00 | 0.00 | 30 | 1014.4 |
| 20260506225626 | 55 | 127 | 6.1 | 10.4 | 0.00 | 0.00 | 0.00 | 31 | 1014.4 |
| 20260506225404 | 55 | 123 | 5.2 | 8.7 | 0.00 | 0.00 | 0.00 | 32 | 1014.5 |
| 20260506225204 | 55 | 83 | 2.6 | 6.1 | 0.00 | 0.00 | 0.00 | 31 | 1014.5 |
| 20260506225004 | 54 | 2 | 2.6 | 6.1 | 0.00 | 0.00 | 0.00 | 31 | 1014.5 |
| 20260506224805 | 54 | 15 | 3.5 | 8.7 | 0.00 | 0.00 | 0.00 | 30 | 1014.6 |
| 20260506224604 | 54 | 61 | 2.6 | 8.7 | 0.00 | 0.00 | 0.00 | 31 | 1014.6 |
| 20260506224403 | 54 | 74 | 2.6 | 9.6 | 0.00 | 0.00 | 0.00 | 31 | 1014.7 |
| 20260506224207 | 54 | 61 | 2.6 | 9.6 | 0.00 | 0.00 | 0.00 | 30 | 1014.7 |
| 20260506224004 | 54 | 58 | 3.5 | 9.6 | 0.00 | 0.00 | 0.00 | 30 | 1014.7 |
| 20260506223804 | 54 | 46 | 4.3 | 9.6 | 0.00 | 0.00 | 0.00 | 31 | 1014.7 |
| 20260506223604 | 54 | 53 | 5.2 | 9.6 | 0.00 | 0.00 | 0.00 | 32 | 1014.7 |
| 20260506223404 | 53 | 69 | 5.2 | 8.7 | 0.00 | 0.00 | 0.00 | 33 | 1014.8 |
| 20260506223204 | 53 | 73 | 3.5 | 8.7 | 0.00 | 0.00 | 0.00 | 32 | 1014.7 |
| 20260506223003 | 53 | 80 | 3.5 | 8.7 | 0.00 | 0.00 | 0.00 | 32 | 1014.8 |
| 20260506222804 | 53 | 95 | 2.6 | 8.7 | 0.00 | 0.00 | 0.00 | 33 | 1014.7 |
| 20260506222604 | 52 | 109 | 4.3 | 8.7 | 0.00 | 0.00 | 0.00 | 33 | 1014.7 |
| 20260506222403 | 52 | 93 | 2.6 | 8.7 | 0.00 | 0.00 | 0.00 | 35 | 1014.7 |
| 20260506222204 | 52 | 79 | 0.9 | 6.1 | 0.00 | 0.00 | 0.00 | 32 | 1014.7 |
| 20260506222004 | 52 | 94 | 2.6 | 6.1 | 0.00 | 0.00 | 0.00 | 31 | 1014.8 |
| 20260506221804 | 52 | 104 | 2.6 | 6.1 | 0.00 | 0.00 | 0.00 | 32 | 1014.9 |
| 20260506221603 | 52 | 97 | 3.5 | 6.1 | 0.00 | 0.00 | 0.00 | 33 | 1015.0 |
| 20260506221404 | 52 | 120 | 3.5 | 6.1 | 0.00 | 0.00 | 0.00 | 34 | 1015.0 |
| 20260506221225 | 52 | 136 | 2.6 | 6.1 | 0.00 | 0.00 | 0.00 | 33 | 1015.1 |
| 20260506221025 | 52 | 159 | 1.7 | 6.1 | 0.00 | 0.00 | 0.00 | 33 | 1015.1 |
| 20260506220825 | 52 | 147 | 3.5 | 6.1 | 0.00 | 0.00 | 0.00 | 33 | 1015.1 |
| 20260506220604 | 52 | 131 | 3.5 | 8.7 | 0.00 | 0.00 | 0.00 | 34 | 1015.1 |
| 20260506220404 | 52 | 121 | 3.5 | 9.6 | 0.00 | 0.00 | 0.00 | 31 | 1015.2 |
| 20260506220207 | 52 | 118 | 3.5 | 9.6 | 0.00 | 0.00 | 0.00 | 31 | 1015.2 |
| 20260506220025 | 52 | 109 | 2.6 | 9.6 | 0.00 | 0.00 | 0.00 | 33 | 1015.3 |
| 20260506215826 | 53 | 106 | 4.3 | 9.6 | 0.00 | 0.00 | 0.00 | 32 | 1015.3 |
| 20260506215625 | 53 | 112 | 4.3 | 9.6 | 0.00 | 0.00 | 0.00 | 31 | 1015.4 |
| 20260506215403 | 53 | 100 | 6.1 | 9.6 | 0.00 | 0.00 | 0.00 | 32 | 1015.4 |
| 20260506215204 | 53 | 105 | 6.1 | 9.6 | 0.00 | 0.00 | 0.00 | 32 | 1015.4 |
| 20260506215004 | 53 | 132 | 1.7 | 9.6 | 0.00 | 0.00 | 0.00 | 32 | 1015.5 |
| 20260506214804 | 53 | 106 | 1.7 | 10.4 | 0.00 | 0.00 | 0.00 | 32 | 1015.5 |
| 20260506214603 | 53 | 18 | 0.9 | 10.4 | 0.00 | 0.00 | 0.00 | 32 | 1015.5 |
| 20260506214403 | 53 | 94 | 1.7 | 10.4 | 0.00 | 0.00 | 0.00 | 30 | 1015.5 |
| 20260506214225 | 54 | 79 | 5.2 | 10.4 | 0.00 | 0.00 | 0.00 | 30 | 1015.5 |
| 20260506214025 | 54 | 88 | 6.1 | 10.4 | 0.00 | 0.00 | 0.00 | 31 | 1015.6 |
| 20260506213828 | 54 | 113 | 2.6 | 6.1 | 0.00 | 0.00 | 0.00 | 30 | 1015.6 |
| 20260506213604 | 54 | 225 | 1.7 | 5.2 | 0.00 | 0.00 | 0.00 | 30 | 1015.6 |
| 20260506213404 | 54 | 177 | 1.7 | 8.7 | 0.00 | 0.00 | 0.00 | 30 | 1015.7 |
| 20260506213204 | 54 | 97 | 3.5 | 9.6 | 0.00 | 0.00 | 0.00 | 29 | 1015.7 |
| 20260506213003 | 54 | 123 | 2.6 | 11.3 | 0.00 | 0.00 | 0.00 | 30 | 1015.7 |
| 20260506212804 | 55 | 92 | 2.6 | 11.3 | 0.00 | 0.00 | 0.00 | 30 | 1015.8 |
| 20260506212604 | 55 | 86 | 5.2 | 11.3 | 0.00 | 0.00 | 0.00 | 31 | 1015.9 |
| 20260506212404 | 55 | 110 | 5.2 | 11.3 | 0.00 | 0.00 | 0.00 | 31 | 1015.8 |
| 20260506212204 | 55 | 95 | 5.2 | 11.3 | 0.00 | 0.00 | 0.00 | 31 | 1015.9 |
| 20260506212007 | 55 | 75 | 6.1 | 12.2 | 0.00 | 0.00 | 0.00 | 31 | 1015.9 |
| 20260506211803 | 55 | 77 | 3.5 | 12.2 | 0.00 | 0.00 | 0.00 | 31 | 1015.9 |
| 20260506211604 | 55 | 75 | 5.2 | 12.2 | 0.00 | 0.00 | 0.00 | 31 | 1015.9 |
| 20260506211403 | 55 | 108 | 4.3 | 12.2 | 0.00 | 0.00 | 0.00 | 31 | 1016.0 |
| 20260506211204 | 55 | 118 | 5.2 | 12.2 | 0.00 | 0.00 | 0.00 | 32 | 1016.0 |
| 20260506211004 | 54 | 46 | 3.5 | 10.4 | 0.00 | 0.00 | 0.00 | 31 | 1016.1 |
| 20260506210804 | 54 | 46 | 4.3 | 12.2 | 0.00 | 0.00 | 0.00 | 31 | 1016.1 |
| 20260506210603 | 54 | 99 | 4.3 | 12.2 | 0.00 | 0.00 | 0.00 | 31 | 1016.2 |
| 20260506210404 | 54 | 87 | 5.2 | 12.2 | 0.00 | 0.00 | 0.00 | 31 | 1016.1 |
| 20260506210204 | 54 | 80 | 5.2 | 12.2 | 0.00 | 0.00 | 0.00 | 32 | 1016.2 |
| 20260506210008 | 54 | 70 | 5.2 | 12.2 | 0.00 | 0.00 | 0.00 | 33 | 1016.2 |
| 20260506205804 | 53 | 77 | 7.8 | 12.2 | 0.00 | 0.00 | 0.00 | 33 | 1016.2 |
| 20260506205604 | 53 | 80 | 5.2 | 10.4 | 0.00 | 0.00 | 0.00 | 34 | 1016.3 |
| 20260506205404 | 53 | 117 | 1.7 | 10.4 | 0.00 | 0.00 | 0.00 | 32 | 1016.3 |
| 20260506205205 | 53 | 130 | 5.2 | 10.4 | 0.00 | 0.00 | 0.00 | 33 | 1016.3 |
| 20260506205005 | 53 | 110 | 4.3 | 10.4 | 0.00 | 0.00 | 0.00 | 31 | 1016.3 |
| 20260506204803 | 53 | 95 | 4.3 | 10.4 | 0.00 | 0.00 | 0.00 | 32 | 1016.4 |
| 20260506204604 | 53 | 84 | 7.0 | 10.4 | 0.00 | 0.00 | 0.00 | 34 | 1016.5 |
| 20260506204404 | 52 | 61 | 2.6 | 8.7 | 0.00 | 0.00 | 0.00 | 33 | 1016.5 |
| 20260506204224 | 52 | 66 | 5.2 | 8.7 | 0.00 | 0.00 | 0.00 | 33 | 1016.6 |
| 20260506204025 | 52 | 57 | 3.5 | 10.4 | 0.00 | 0.00 | 0.00 | 32 | 1016.5 |
| 20260506203825 | 52 | 74 | 4.3 | 10.4 | 0.00 | 0.00 | 0.00 | 33 | 1016.5 |
| 20260506203604 | 53 | 76 | 4.3 | 10.4 | 0.00 | 0.00 | 0.00 | 32 | 1016.6 |
| 20260506203404 | 53 | 117 | 6.1 | 12.2 | 0.00 | 0.00 | 0.00 | 33 | 1016.6 |
| 20260506203204 | 53 | 91 | 2.6 | 12.2 | 0.00 | 0.00 | 0.00 | 33 | 1016.6 |
| 20260506203004 | 53 | 99 | 4.3 | 12.2 | 0.00 | 0.00 | 0.00 | 32 | 1016.6 |
| 20260506202804 | 53 | 72 | 7.8 | 12.2 | 0.00 | 0.00 | 0.00 | 33 | 1016.7 |
| 20260506202604 | 53 | 101 | 4.3 | 12.2 | 0.00 | 0.00 | 0.00 | 32 | 1016.7 |
| 20260506202425 | 53 | 223 | 2.6 | 9.6 | 0.00 | 0.00 | 0.00 | 31 | 1016.7 |
| 20260506202225 | 53 | 187 | 3.5 | 10.4 | 0.00 | 0.00 | 0.00 | 32 | 1016.7 |
| 20260506202025 | 53 | 109 | 4.3 | 10.4 | 0.00 | 0.00 | 0.00 | 32 | 1016.8 |
| 20260506201825 | 53 | 62 | 4.3 | 10.4 | 0.00 | 0.00 | 0.00 | 32 | 1016.8 |
| 20260506201624 | 53 | 91 | 5.2 | 10.4 | 0.00 | 0.00 | 0.00 | 34 | 1016.8 |
| 20260506201424 | 53 | 79 | 3.5 | 12.2 | 0.00 | 0.00 | 0.00 | 33 | 1016.9 |
| 20260506201203 | 53 | 74 | 3.5 | 12.2 | 0.00 | 0.00 | 0.00 | 32 | 1016.8 |
| 20260506201003 | 53 | 57 | 6.1 | 12.2 | 0.00 | 0.00 | 0.00 | 32 | 1016.8 |
| 20260506200803 | 53 | 67 | 7.0 | 12.2 | 0.00 | 0.00 | 0.00 | 33 | 1016.8 |
| 20260506200603 | 53 | 108 | 7.0 | 12.2 | 0.00 | 0.00 | 0.00 | 32 | 1016.8 |
| 20260506200404 | 53 | 114 | 6.1 | 13.0 | 0.00 | 0.00 | 0.00 | 32 | 1016.8 |
| 20260506200204 | 53 | 132 | 7.0 | 13.0 | 0.00 | 0.00 | 0.00 | 33 | 1017.0 |
| 20260506200004 | 53 | 109 | 6.1 | 13.0 | 0.00 | 0.00 | 0.00 | 33 | 1016.9 |
| 20260506195804 | 53 | 76 | 2.6 | 13.0 | 0.00 | 0.00 | 0.00 | 32 | 1017.0 |
| 20260506195604 | 54 | 94 | 7.8 | 13.0 | 0.00 | 0.00 | 0.00 | 32 | 1017.0 |
| 20260506195404 | 54 | 68 | 7.0 | 13.0 | 0.00 | 0.00 | 0.00 | 31 | 1017.1 |
| 20260506195204 | 53 | 109 | 6.1 | 12.2 | 0.00 | 0.00 | 0.00 | 34 | 1017.1 |
| 20260506195004 | 53 | 72 | 6.1 | 13.0 | 0.00 | 0.00 | 0.00 | 33 | 1017.1 |
| 20260506194803 | 53 | 75 | 5.2 | 13.0 | 0.00 | 0.00 | 0.00 | 35 | 1017.1 |
| 20260506194604 | 53 | 44 | 2.6 | 13.0 | 0.00 | 0.00 | 0.00 | 33 | 1017.1 |
| 20260506194404 | 53 | 110 | 6.1 | 13.0 | 0.00 | 0.00 | 0.00 | 33 | 1017.2 |
| 20260506194204 | 52 | 82 | 8.7 | 13.0 | 0.00 | 0.00 | 0.00 | 35 | 1017.1 |
| 20260506194004 | 52 | 71 | 7.8 | 12.2 | 0.00 | 0.00 | 0.00 | 34 | 1017.2 |
| 20260506193804 | 52 | 87 | 5.2 | 12.2 | 0.00 | 0.00 | 0.00 | 34 | 1017.2 |
| 20260506193604 | 52 | 101 | 3.5 | 12.2 | 0.00 | 0.00 | 0.00 | 34 | 1017.2 |
| 20260506193404 | 52 | 98 | 5.2 | 12.2 | 0.00 | 0.00 | 0.00 | 32 | 1017.2 |
| 20260506193204 | 53 | 81 | 4.3 | 12.2 | 0.00 | 0.00 | 0.00 | 33 | 1017.3 |
| 20260506193004 | 53 | 80 | 7.0 | 12.2 | 0.00 | 0.00 | 0.00 | 32 | 1017.2 |
| 20260506192804 | 53 | 64 | 7.8 | 11.3 | 0.00 | 0.00 | 0.00 | 33 | 1017.2 |
| 20260506192604 | 53 | 79 | 5.2 | 11.3 | 0.00 | 0.00 | 0.00 | 32 | 1017.3 |
| 20260506192404 | 53 | 68 | 6.1 | 11.3 | 0.00 | 0.00 | 0.00 | 32 | 1017.3 |
| 20260506192203 | 53 | 81 | 7.0 | 11.3 | 0.00 | 0.00 | 0.00 | 34 | 1017.2 |
| 20260506192004 | 53 | 126 | 4.3 | 10.4 | 0.00 | 0.00 | 0.00 | 33 | 1017.3 |
| 20260506191804 | 53 | 104 | 6.1 | 12.2 | 0.00 | 0.00 | 0.00 | 33 | 1017.3 |
| 20260506191603 | 53 | 99 | 6.1 | 13.9 | 0.00 | 0.00 | 0.00 | 33 | 1017.4 |
| 20260506191404 | 53 | 63 | 3.5 | 13.9 | 0.00 | 0.00 | 0.00 | 33 | 1017.5 |
| 20260506191204 | 52 | 92 | 7.0 | 13.9 | 0.00 | 0.00 | 0.00 | 35 | 1017.4 |
| 20260506191004 | 52 | 85 | 5.2 | 13.9 | 0.00 | 0.00 | 0.00 | 34 | 1017.4 |
| 20260506190804 | 52 | 72 | 8.7 | 13.9 | 0.00 | 0.00 | 0.00 | 35 | 1017.5 |
| 20260506190604 | 52 | 57 | 8.7 | 14.8 | 0.00 | 0.00 | 0.00 | 34 | 1017.5 |
| 20260506190404 | 52 | 64 | 7.0 | 14.8 | 0.00 | 0.00 | 0.00 | 34 | 1017.6 |
| 20260506190204 | 51 | 79 | 7.0 | 14.8 | 0.00 | 0.00 | 0.00 | 34 | 1017.6 |
| 20260506190005 | 52 | 67 | 7.0 | 14.8 | 0.00 | 0.00 | 0.00 | 32 | 1017.6 |
| 20260506185804 | 52 | 64 | 7.8 | 14.8 | 0.00 | 0.00 | 0.00 | 31 | 1017.6 |
| 20260506185604 | 52 | 53 | 7.0 | 13.9 | 0.00 | 0.00 | 0.00 | 32 | 1017.6 |
| 20260506185404 | 52 | 42 | 7.8 | 13.9 | 0.00 | 0.00 | 0.00 | 33 | 1017.6 |
| 20260506185204 | 52 | 66 | 7.0 | 13.9 | 0.00 | 0.00 | 0.00 | 34 | 1017.6 |
| 20260506185004 | 52 | 71 | 7.0 | 13.9 | 0.00 | 0.00 | 0.00 | 35 | 1017.6 |
| 20260506184804 | 52 | 54 | 9.6 | 13.9 | 0.00 | 0.00 | 0.00 | 34 | 1017.6 |
| 20260506184603 | 52 | 76 | 7.8 | 13.0 | 0.00 | 0.00 | 0.00 | 34 | 1017.6 |
| 20260506184404 | 52 | 75 | 4.3 | 10.4 | 0.00 | 0.00 | 0.00 | 34 | 1017.7 |
| 20260506184203 | 52 | 9 | 5.2 | 10.4 | 0.00 | 0.00 | 0.00 | 34 | 1017.7 |
| 20260506184004 | 51 | 67 | 5.2 | 10.4 | 0.00 | 0.00 | 0.00 | 37 | 1017.8 |
| 20260506183804 | 51 | 62 | 6.1 | 10.4 | 0.00 | 0.00 | 0.00 | 33 | 1017.7 |
| 20260506183604 | 51 | 27 | 2.6 | 9.6 | 0.00 | 0.00 | 0.00 | 33 | 1017.8 |
| 20260506183404 | 51 | 16 | 5.2 | 9.6 | 0.00 | 0.00 | 0.00 | 33 | 1017.9 |
| 20260506183204 | 51 | 15 | 2.6 | 8.7 | 0.00 | 0.00 | 0.00 | 32 | 1017.9 |
| 20260506183005 | 51 | 26 | 4.3 | 9.6 | 0.00 | 0.00 | 0.00 | 32 | 1017.9 |
| 20260506182804 | 51 | 65 | 5.2 | 9.6 | 0.00 | 0.00 | 0.00 | 33 | 1017.9 |
| 20260506182604 | 50 | 50 | 4.3 | 11.3 | 0.00 | 0.00 | 0.00 | 36 | 1018.0 |
| 20260506182424 | 50 | 357 | 2.6 | 11.3 | 0.00 | 0.00 | 0.00 | 34 | 1018.0 |
| 20260506182225 | 50 | 6 | 5.2 | 11.3 | 0.00 | 0.00 | 0.00 | 33 | 1018.0 |
| 20260506182025 | 50 | 359 | 5.2 | 11.3 | 0.00 | 0.00 | 0.00 | 34 | 1018.0 |
| 20260506181804 | 50 | 347 | 7.0 | 11.3 | 0.00 | 0.00 | 0.00 | 33 | 1018.0 |
| 20260506181603 | 50 | 94 | 4.3 | 9.6 | 0.00 | 0.00 | 0.00 | 35 | 1018.1 |
| 20260506181404 | 50 | 22 | 2.6 | 9.6 | 0.00 | 0.00 | 0.00 | 33 | 1018.1 |
| 20260506181204 | 50 | 49 | 4.3 | 9.6 | 0.00 | 0.00 | 0.00 | 33 | 1018.2 |
| 20260506181004 | 50 | 77 | 4.3 | 9.6 | 0.00 | 0.00 | 0.00 | 34 | 1018.2 |
| 20260506180804 | 50 | 62 | 5.2 | 9.6 | 0.00 | 0.00 | 0.00 | 32 | 1018.3 |
| 20260506180604 | 50 | 66 | 5.2 | 9.6 | 0.00 | 0.00 | 0.00 | 34 | 1018.3 |
| 20260506180404 | 50 | 48 | 3.5 | 10.4 | 0.00 | 0.00 | 0.00 | 33 | 1018.3 |
| 20260506180203 | 50 | 26 | 2.6 | 10.4 | 0.00 | 0.00 | 0.00 | 34 | 1018.4 |
| 20260506180005 | 50 | 7 | 5.2 | 10.4 | 0.00 | 0.00 | 0.00 | 33 | 1018.4 |
| 20260506175804 | 50 | 335 | 7.0 | 10.4 | 0.00 | 0.00 | 0.00 | 34 | 1018.4 |
| 20260506175604 | 50 | 32 | 6.1 | 10.4 | 0.00 | 0.00 | 0.00 | 33 | 1018.5 |
| 20260506175404 | 50 | 34 | 3.5 | 12.2 | 0.00 | 0.00 | 0.00 | 36 | 1018.6 |
| 20260506175203 | 50 | 78 | 3.5 | 17.4 | 0.00 | 0.00 | 0.00 | 35 | 1018.6 |
| 20260506175004 | 50 | 28 | 4.3 | 17.4 | 0.00 | 0.00 | 0.00 | 34 | 1018.6 |
| 20260506174825 | 50 | 35 | 4.3 | 17.4 | 0.00 | 0.00 | 0.00 | 35 | 1018.6 |
| 20260506174625 | 50 | 29 | 7.8 | 17.4 | 0.00 | 0.00 | 0.00 | 34 | 1018.6 |
| 20260506174425 | 50 | 38 | 10.4 | 17.4 | 0.00 | 0.00 | 0.00 | 34 | 1018.6 |
| 20260506174225 | 50 | 60 | 6.1 | 9.6 | 0.00 | 0.00 | 0.00 | 35 | 1018.7 |
| 20260506174025 | 50 | 49 | 5.2 | 9.6 | 0.00 | 0.00 | 0.00 | 36 | 1018.6 |
| 20260506173825 | 49 | 42 | 4.3 | 19.1 | 0.00 | 0.00 | 0.00 | 35 | 1018.8 |
| 20260506173604 | 49 | 52 | 5.2 | 19.1 | 0.00 | 0.00 | 0.00 | 37 | 1018.8 |
| 20260506173404 | 49 | 46 | 2.6 | 19.1 | 0.00 | 0.00 | 0.00 | 35 | 1018.8 |
| 20260506173204 | 49 | 28 | 2.6 | 19.1 | 0.00 | 0.00 | 0.00 | 34 | 1018.8 |
| 20260506173024 | 48 | 20 | 7.8 | 19.1 | 0.00 | 0.00 | 0.00 | 37 | 1018.8 |
| 20260506172825 | 48 | 64 | 5.2 | 12.2 | 0.00 | 0.00 | 0.00 | 36 | 1018.9 |
| 20260506172625 | 48 | 73 | 5.2 | 12.2 | 0.00 | 0.00 | 0.00 | 34 | 1018.9 |
| 20260506172404 | 48 | 57 | 5.2 | 12.2 | 0.00 | 0.00 | 0.00 | 35 | 1018.9 |
| 20260506172204 | 48 | 30 | 7.0 | 12.2 | 0.00 | 0.00 | 0.00 | 35 | 1019.0 |
| 20260506172004 | 48 | 14 | 6.1 | 11.3 | 0.00 | 0.00 | 0.00 | 35 | 1019.0 |
| 20260506171803 | 48 | 357 | 6.1 | 11.3 | 0.00 | 0.00 | 0.00 | 35 | 1019.1 |
| 20260506171604 | 48 | 15 | 7.8 | 11.3 | 0.00 | 0.00 | 0.00 | 35 | 1019.1 |
| 20260506171404 | 48 | 7 | 7.0 | 11.3 | 0.00 | 0.00 | 0.00 | 36 | 1019.0 |
| 20260506171204 | 48 | 17 | 6.1 | 13.9 | 0.00 | 0.00 | 0.00 | 36 | 1019.1 |
| 20260506171004 | 48 | 358 | 5.2 | 13.9 | 0.00 | 0.00 | 0.00 | 37 | 1019.2 |
| 20260506170804 | 47 | 24 | 5.2 | 13.9 | 0.00 | 0.00 | 0.00 | 35 | 1019.2 |
| 20260506170604 | 47 | 9 | 7.0 | 13.9 | 0.00 | 0.00 | 0.00 | 34 | 1019.1 |
| 20260506170408 | 48 | 343 | 9.6 | 13.9 | 0.00 | 0.00 | 0.00 | 35 | 1019.1 |
| 20260506170204 | 48 | 14 | 5.2 | 13.0 | 0.00 | 0.00 | 0.00 | 35 | 1019.2 |
| 20260506170004 | 47 | 11 | 6.1 | 13.0 | 0.00 | 0.00 | 0.00 | 35 | 1019.2 |
| 20260506165804 | 47 | 352 | 7.8 | 13.9 | 0.00 | 0.00 | 0.00 | 37 | 1019.1 |
| 20260506165604 | 47 | 8 | 6.1 | 15.6 | 0.00 | 0.00 | 0.00 | 37 | 1019.2 |
| 20260506165403 | 47 | 17 | 4.3 | 15.6 | 0.00 | 0.00 | 0.00 | 35 | 1019.2 |
| 20260506165205 | 46 | 350 | 7.8 | 15.6 | 0.00 | 0.00 | 0.00 | 36 | 1019.2 |
| 20260506165007 | 46 | 338 | 7.8 | 15.6 | 0.00 | 0.00 | 0.00 | 36 | 1019.3 |
| 20260506164804 | 46 | 2 | 7.0 | 15.6 | 0.00 | 0.00 | 0.00 | 36 | 1019.3 |
| 20260506164603 | 46 | 9 | 7.8 | 14.8 | 0.00 | 0.00 | 0.00 | 36 | 1019.3 |
| 20260506164403 | 46 | 345 | 7.0 | 14.8 | 0.00 | 0.00 | 0.00 | 36 | 1019.4 |
| 20260506164204 | 46 | 354 | 5.2 | 14.8 | 0.00 | 0.00 | 0.00 | 36 | 1019.4 |
| 20260506164004 | 46 | 13 | 8.7 | 14.8 | 0.00 | 0.00 | 0.00 | 35 | 1019.4 |
| 20260506163804 | 46 | 345 | 7.0 | 12.2 | 0.00 | 0.00 | 0.00 | 36 | 1019.4 |
| 20260506163604 | 47 | 358 | 6.1 | 18.2 | 0.00 | 0.00 | 0.00 | 35 | 1019.3 |
| 20260506163404 | 47 | 339 | 7.8 | 18.2 | 0.00 | 0.00 | 0.00 | 35 | 1019.4 |
| 20260506163205 | 47 | 345 | 7.0 | 18.2 | 0.00 | 0.00 | 0.00 | 35 | 1019.4 |
| 20260506163004 | 47 | 316 | 8.7 | 18.2 | 0.00 | 0.00 | 0.00 | 37 | 1019.4 |
| 20260506162804 | 46 | 32 | 9.6 | 18.2 | 0.00 | 0.00 | 0.00 | 37 | 1019.4 |
| 20260506162604 | 46 | 358 | 4.3 | 13.9 | 0.00 | 0.00 | 0.00 | 36 | 1019.5 |
| 20260506162407 | 46 | 337 | 7.0 | 13.9 | 0.00 | 0.00 | 0.00 | 36 | 1019.5 |
| 20260506162203 | 46 | 350 | 7.0 | 13.9 | 0.00 | 0.00 | 0.00 | 36 | 1019.5 |
| 20260506162004 | 46 | 7 | 7.0 | 12.2 | 0.00 | 0.00 | 0.00 | 36 | 1019.5 |
| 20260506161804 | 46 | 25 | 7.8 | 14.8 | 0.00 | 0.00 | 0.00 | 37 | 1019.7 |
| 20260506161604 | 45 | 48 | 5.2 | 14.8 | 0.00 | 0.00 | 0.00 | 38 | 1019.6 |
| 20260506161405 | 45 | 24 | 6.1 | 14.8 | 0.00 | 0.00 | 0.00 | 37 | 1019.6 |
| 20260506161203 | 45 | 360 | 6.1 | 14.8 | 0.00 | 0.00 | 0.00 | 36 | 1019.6 |
| 20260506161004 | 45 | 16 | 7.8 | 14.8 | 0.00 | 0.00 | 0.00 | 37 | 1019.7 |
| 20260506160804 | 45 | 12 | 5.2 | 13.0 | 0.00 | 0.00 | 0.00 | 37 | 1019.6 |
| 20260506160604 | 45 | 18 | 7.8 | 13.0 | 0.00 | 0.00 | 0.00 | 36 | 1019.6 |
| 20260506160404 | 45 | 12 | 5.2 | 11.3 | 0.00 | 0.00 | 0.00 | 37 | 1019.7 |
| 20260506160204 | 45 | 347 | 7.0 | 11.3 | 0.00 | 0.00 | 0.00 | 36 | 1019.7 |
| 20260506160005 | 45 | 341 | 6.1 | 11.3 | 0.00 | 0.00 | 0.00 | 36 | 1019.8 |
| 20260506155804 | 46 | 357 | 7.0 | 11.3 | 0.00 | 0.00 | 0.00 | 36 | 1019.8 |
| 20260506155604 | 46 | 342 | 7.0 | 11.3 | 0.00 | 0.00 | 0.00 | 36 | 1019.8 |
| 20260506155403 | 46 | 11 | 2.6 | 11.3 | 0.00 | 0.00 | 0.00 | 38 | 1019.8 |
| 20260506155204 | 46 | 334 | 6.1 | 11.3 | 0.00 | 0.00 | 0.00 | 36 | 1019.8 |
| 20260506155004 | 45 | 318 | 7.0 | 10.4 | 0.00 | 0.00 | 0.00 | 37 | 1019.8 |
| 20260506154804 | 45 | 341 | 5.2 | 12.2 | 0.00 | 0.00 | 0.00 | 38 | 1019.9 |
| 20260506154603 | 45 | 344 | 6.1 | 12.2 | 0.00 | 0.00 | 0.00 | 38 | 1019.8 |
| 20260506154404 | 45 | 338 | 5.2 | 12.2 | 0.00 | 0.00 | 0.00 | 39 | 1019.9 |
| 20260506154204 | 44 | 5 | 5.2 | 12.2 | 0.00 | 0.00 | 0.00 | 38 | 1019.9 |